CW1490 Weather Reports


Display with metric or nautical units.
time (UTC)temp
F
wind
direction
speed
MPH
gust
MPH
rain 1hr
in
rain 24hr
in
rain mn
in
humidity
%
barometer
mb
20230201033508 19 9 4.0 11.0 0.00 0.00 0.00 58 1024.6
20230201033408 19 10 4.0 11.0 0.00 0.00 0.00 58 1024.7
20230201033208 19 352 3.0 11.0 0.00 0.00 0.00 58 1024.7
20230201033008 19 16 8.0 11.0 0.00 0.00 0.00 58 1024.9
20230201032909 19 2 8.0 10.0 0.00 0.00 0.00 59 1024.9
20230201032708 19 21 6.0 10.0 0.00 0.00 0.00 59 1025.0
20230201032510 19 21 8.0 10.0 0.00 0.00 0.00 58 1025.0
20230201032408 19 12 5.0 10.0 0.00 0.00 0.00 58 1025.0
20230201032308 19 14 7.0 10.0 0.00 0.00 0.00 59 1025.1
20230201032208 19 9 7.0 10.0 0.00 0.00 0.00 58 1025.1
20230201032008 19 16 10.0 10.0 0.00 0.00 0.00 59 1025.2
20230201031908 19 360 6.0 10.0 0.00 0.00 0.00 59 1025.2
20230201031809 19 21 7.0 10.0 0.00 0.00 0.00 60 1025.3
20230201031709 19 2 7.0 10.0 0.00 0.00 0.00 61 1025.3
20230201031609 19 9 6.0 10.0 0.00 0.00 0.00 61 1025.3
20230201031509 19 21 4.0 10.0 0.00 0.00 0.00 60 1025.3
20230201031408 19 29 5.0 10.0 0.00 0.00 0.00 61 1025.3
20230201031310 19 16 5.0 10.0 0.00 0.00 0.00 62 1025.3
20230201031208 19 17 7.0 9.0 0.00 0.00 0.00 62 1025.3
20230201031109 19 21 5.0 9.0 0.00 0.00 0.00 61 1025.3
20230201031008 19 23 6.0 9.0 0.00 0.00 0.00 62 1025.2
20230201030809 19 19 3.0 9.0 0.00 0.00 0.00 62 1025.2
20230201030708 19 321 2.0 9.0 0.00 0.00 0.00 62 1025.1
20230201030610 19 38 4.0 9.0 0.00 0.00 0.00 62 1025.1
20230201030508 19 10 5.0 9.0 0.00 0.00 0.00 62 1025.0
20230201030409 19 10 8.0 9.0 0.00 0.00 0.00 61 1025.0
20230201030208 20 12 5.0 7.0 0.00 0.00 0.00 61 1025.1
20230201030109 20 30 5.0 7.0 0.00 0.00 0.00 61 1025.1
20230201025907 20 358 3.0 7.0 0.00 0.00 0.00 61 1025.1
20230201025707 19 47 3.0 6.0 0.00 0.00 0.00 62 1025.1
20230201025609 19 12 3.0 6.0 0.00 0.00 0.00 62 1025.1
20230201025507 19 61 4.0 6.0 0.00 0.00 0.00 62 1025.0
20230201025407 19 40 4.0 6.0 0.00 0.00 0.00 62 1025.0
20230201025307 19 12 3.0 6.0 0.00 0.00 0.00 62 1025.0
20230201025107 19 26 3.0 6.0 0.00 0.00 0.00 63 1025.1
20230201024607 20 17 6.0 6.0 0.00 0.00 0.00 62 1025.0
20230201024507 20 23 3.0 6.0 0.00 0.00 0.00 62 1025.1
20230201024408 20 319 2.0 6.0 0.00 0.00 0.00 62 1025.1
20230201024307 20 5 2.0 6.0 0.00 0.00 0.00 62 1025.1
20230201024207 20 338 3.0 6.0 0.00 0.00 0.00 62 1025.1
20230201024107 20 345 4.0 6.0 0.00 0.00 0.00 63 1025.1
20230201024009 20 5 6.0 6.0 0.00 0.00 0.00 63 1025.1
20230201023907 20 357 2.0 6.0 0.00 0.00 0.00 63 1025.1
20230201023807 20 343 3.0 6.0 0.00 0.00 0.00 63 1025.1
20230201023707 20 355 3.0 6.0 0.00 0.00 0.00 64 1025.1
20230201023609 20 358 4.0 6.0 0.00 0.00 0.00 64 1025.2
20230201023507 20 331 5.0 6.0 0.00 0.00 0.00 64 1025.2
20230201023408 20 338 4.0 6.0 0.00 0.00 0.00 64 1025.2
20230201023210 20 350 2.0 5.0 0.00 0.00 0.00 64 1025.2
20230201023107 20 17 1.0 5.0 0.00 0.00 0.00 63 1025.2
20230201023007 20 2 4.0 4.0 0.00 0.00 0.00 62 1025.3
20230201022907 20 338 2.0 4.0 0.00 0.00 0.00 62 1025.3
20230201022809 20 355 2.0 4.0 0.00 0.00 0.00 62 1025.2
20230201022707 20 12 2.0 4.0 0.00 0.00 0.00 61 1025.2
20230201022607 20 31 3.0 4.0 0.00 0.00 0.00 61 1025.2
20230201022507 20 23 2.0 3.0 0.00 0.00 0.00 62 1025.3
20230201022409 20 30 2.0 3.0 0.00 0.00 0.00 62 1025.2
20230201022307 20 5 1.0 3.0 0.00 0.00 0.00 62 1025.3
20230201022207 20 338 0.0 3.0 0.00 0.00 0.00 62 1025.2
20230201022107 20 319 3.0 3.0 0.00 0.00 0.00 62 1025.2
20230201021907 20 338 1.0 4.0 0.00 0.00 0.00 62 1025.2
20230201021609 20 324 3.0 4.0 0.00 0.00 0.00 62 1025.2
20230201021507 20 338 2.0 4.0 0.00 0.00 0.00 62 1025.2
20230201021407 20 338 1.0 4.0 0.00 0.00 0.00 63 1025.2
20230201021307 20 352 1.0 4.0 0.00 0.00 0.00 62 1025.1
20230201021209 20 308 0.0 4.0 0.00 0.00 0.00 62 1025.1
20230201021107 20 328 3.0 4.0 0.00 0.00 0.00 61 1025.1
20230201021007 20 313 2.0 4.0 0.00 0.00 0.00 61 1025.0
20230201020907 20 312 3.0 4.0 0.00 0.00 0.00 60 1025.0
20230201020607 21 317 1.0 4.0 0.00 0.00 0.00 60 1025.0
20230201020507 21 350 3.0 4.0 0.00 0.00 0.00 60 1025.0
20230201020413 21 346 3.0 6.0 0.00 0.00 0.00 59 1025.0
20230201020307 21 350 3.0 6.0 0.00 0.00 0.00 59 1024.9
20230201020208 21 10 4.0 6.0 0.00 0.00 0.00 58 1024.9
20230201020011 21 2 3.0 6.0 0.00 0.00 0.00 59 1024.9
20230201015907 21 352 2.0 6.0 0.00 0.00 0.00 59 1024.9
20230201015807 21 357 2.0 6.0 0.00 0.00 0.00 58 1024.9
20230201015707 21 355 2.0 6.0 0.00 0.00 0.00 59 1024.9
20230201015507 21 291 1.0 7.0 0.00 0.00 0.00 59 1024.8
20230201015407 21 301 0.0 7.0 0.00 0.00 0.00 59 1024.8
20230201015209 21 319 2.0 7.0 0.00 0.00 0.00 58 1024.7
20230201015107 21 308 0.0 7.0 0.00 0.00 0.00 58 1024.7
20230201015007 21 331 3.0 7.0 0.00 0.00 0.00 59 1024.7
20230201014907 21 324 3.0 7.0 0.00 0.00 0.00 59 1024.7
20230201014808 21 305 3.0 7.0 0.00 0.00 0.00 60 1024.7
20230201014707 20 312 5.0 7.0 0.00 0.00 0.00 60 1024.7
20230201014607 20 2 3.0 7.0 0.00 0.00 0.00 61 1024.7
20230201014409 20 315 3.0 7.0 0.00 0.00 0.00 62 1024.7
20230201014307 20 5 4.0 7.0 0.00 0.00 0.00 61 1024.7
20230201014207 20 346 3.0 7.0 0.00 0.00 0.00 60 1024.7
20230201014009 21 9 3.0 7.0 0.00 0.00 0.00 59 1024.7
20230201013807 21 7 3.0 7.0 0.00 0.00 0.00 59 1024.5
20230201013707 21 2 4.0 7.0 0.00 0.00 0.00 59 1024.5
20230201013507 21 346 3.0 7.0 0.00 0.00 0.00 58 1024.6
20230201013407 21 324 4.0 7.0 0.00 0.00 0.00 59 1024.5
20230201013211 21 308 2.0 7.0 0.00 0.00 0.00 58 1024.5
20230201013107 21 317 5.0 7.0 0.00 0.00 0.00 59 1024.3
20230201012908 21 352 3.0 6.0 0.00 0.00 0.00 59 1024.3
20230201012807 21 19 3.0 6.0 0.00 0.00 0.00 59 1024.3
20230201012707 21 306 4.0 8.0 0.00 0.00 0.00 59 1024.2
20230201012607 21 355 3.0 8.0 0.00 0.00 0.00 59 1024.3
20230201012508 21 338 2.0 8.0 0.00 0.00 0.00 59 1024.3
20230201012407 21 338 4.0 8.0 0.00 0.00 0.00 59 1024.3
20230201012307 21 320 3.0 8.0 0.00 0.00 0.00 59 1024.3
20230201012207 21 341 3.0 8.0 0.00 0.00 0.00 59 1024.3
20230201012109 21 319 3.0 8.0 0.00 0.00 0.00 58 1024.3
20230201012007 21 7 3.0 8.0 0.00 0.00 0.00 59 1024.3
20230201011908 21 318 5.0 8.0 0.00 0.00 0.00 59 1024.4
20230201011807 21 301 3.0 7.0 0.00 0.00 0.00 59 1024.3
20230201011607 21 327 4.0 7.0 0.00 0.00 0.00 58 1024.4
20230201011407 21 346 6.0 7.0 0.00 0.00 0.00 59 1024.4
20230201011309 21 7 5.0 7.0 0.00 0.00 0.00 59 1024.4
20230201011207 21 357 4.0 7.0 0.00 0.00 0.00 59 1024.4
20230201010909 21 7 4.0 7.0 0.00 0.00 0.00 59 1024.4
20230201010807 21 5 3.0 7.0 0.00 0.00 0.00 59 1024.3
20230201010707 21 4 5.0 7.0 0.00 0.00 0.00 59 1024.4
20230201010610 21 320 4.0 7.0 0.00 0.00 0.00 60 1024.4
20230201010407 21 352 4.0 7.0 0.00 0.00 0.00 60 1024.4
20230201010307 21 16 3.0 7.0 0.00 0.00 0.00 61 1024.4
20230201010208 21 319 6.0 7.0 0.00 0.00 0.00 61 1024.4
20230201010110 21 7 3.0 5.0 0.00 0.00 0.00 61 1024.4
20230201010009 21 321 3.0 5.0 0.00 0.00 0.00 61 1024.4
20230201005707 21 352 3.0 6.0 0.00 0.00 0.00 61 1024.3
20230201005607 21 311 4.0 6.0 0.00 0.00 0.00 61 1024.2
20230201005509 21 345 3.0 8.0 0.00 0.00 0.00 61 1024.2
20230201005407 21 315 4.0 8.0 0.00 0.00 0.00 61 1024.2
20230201005307 21 305 3.0 8.0 0.00 0.00 0.00 60 1024.2
20230201005211 21 308 2.0 8.0 0.00 0.00 0.00 60 1024.2
20230201005107 22 331 4.0 8.0 0.00 0.00 0.00 60 1024.2
20230201005008 22 320 5.0 8.0 0.00 0.00 0.00 60 1024.2
20230201004707 22 345 3.0 8.0 0.00 0.00 0.00 59 1024.3
20230201004607 22 341 4.0 8.0 0.00 0.00 0.00 59 1024.3
20230201004507 22 357 3.0 8.0 0.00 0.00 0.00 59 1024.2
20230201004408 22 320 3.0 9.0 0.00 0.00 0.00 59 1024.2
20230201004307 22 348 4.0 9.0 0.00 0.00 0.00 59 1024.2
20230201004107 22 324 3.0 9.0 0.00 0.00 0.00 59 1024.2
20230201004009 22 352 3.0 9.0 0.00 0.00 0.00 60 1024.2
20230201003907 22 10 4.0 9.0 0.00 0.00 0.00 59 1024.1
20230201003807 22 10 5.0 9.0 0.00 0.00 0.00 59 1024.0
20230201003707 22 348 3.0 9.0 0.00 0.00 0.00 59 1024.0
20230201003507 22 355 3.0 8.0 0.00 0.00 0.00 60 1024.0
20230201003407 22 321 3.0 8.0 0.00 0.00 0.00 60 1024.0
20230201003309 22 345 3.0 8.0 0.00 0.00 0.00 59 1024.0
20230201003208 22 341 6.0 9.0 0.00 0.00 0.00 60 1024.1
20230201003107 22 332 6.0 9.0 0.00 0.00 0.00 59 1024.0
20230201003007 22 328 3.0 9.0 0.00 0.00 0.00 59 1024.0
20230201002907 22 338 3.0 9.0 0.00 0.00 0.00 59 1024.1
20230201002809 22 357 6.0 9.0 0.00 0.00 0.00 59 1024.1
20230201002707 22 345 3.0 9.0 0.00 0.00 0.00 60 1024.1
20230201002607 22 4 5.0 9.0 0.00 0.00 0.00 60 1024.2
20230201002409 22 350 3.0 9.0 0.00 0.00 0.00 59 1024.2
20230201002307 22 33 5.0 9.0 0.00 0.00 0.00 59 1024.2
20230201002207 22 5 4.0 9.0 0.00 0.00 0.00 60 1024.1
20230201002108 22 355 4.0 9.0 0.00 0.00 0.00 60 1024.1
20230201002009 22 360 7.0 9.0 0.00 0.00 0.00 60 1024.1
20230201001707 22 355 4.0 8.0 0.00 0.00 0.00 60 1024.1
20230201001610 22 297 4.0 8.0 0.00 0.00 0.00 60 1024.1
20230201001507 22 360 3.0 6.0 0.00 0.00 0.00 60 1024.2
20230201001407 22 317 4.0 7.0 0.00 0.00 0.00 60 1024.2
20230201001209 22 7 4.0 7.0 0.00 0.00 0.00 59 1024.2
20230201001107 22 9 4.0 7.0 0.00 0.00 0.00 59 1024.2
20230201001008 22 345 4.0 7.0 0.00 0.00 0.00 59 1024.2
20230201000907 22 326 2.0 7.0 0.00 0.00 0.00 59 1024.2
20230201000809 22 5 3.0 7.0 0.00 0.00 0.00 59 1024.2
20230201000707 22 350 4.0 7.0 0.00 0.00 0.00 59 1024.2
20230201000607 22 5 5.0 7.0 0.00 0.00 0.00 60 1024.2
20230201000507 22 5 5.0 7.0 0.00 0.00 0.00 60 1024.2
20230201000409 22 360 5.0 9.0 0.00 0.00 0.00 60 1024.2
20230201000309 22 352 3.0 9.0 0.00 0.00 0.00 60 1024.2
20230201000208 22 348 2.0 9.0 0.00 0.00 0.00 60 1024.2
20230201000107 22 31 4.0 9.0 0.00 0.00 0.00 59 1024.1
20230201000011 22 21 6.0 9.0 0.00 0.00 0.00 59 1024.1
20230131235907 22 12 3.0 9.0 0.00 0.00 0.00 59 1024.1
20230131235809 23 2 4.0 9.0 0.00 0.00 0.00 58 1024.1
20230131235708 23 16 5.0 9.0 0.00 0.00 0.00 58 1024.1
20230131235607 23 7 7.0 9.0 0.00 0.00 0.00 59 1024.1
20230131235507 23 17 6.0 8.0 0.00 0.00 0.00 58 1024.1
20230131235409 23 18 4.0 8.0 0.00 0.00 0.00 58 1024.1
20230131235309 23 2 5.0 8.0 0.00 0.00 0.00 58 1024.0
20230131235207 23 360 7.0 7.0 0.00 0.00 0.00 59 1024.0
20230131235009 23 14 3.0 5.0 0.00 0.00 0.00 59 1024.0
20230131234909 23 323 4.0 5.0 0.00 0.00 0.00 59 1023.9
20230131234807 23 5 3.0 5.0 0.00 0.00 0.00 59 1023.9
20230131234707 23 9 3.0 5.0 0.00 0.00 0.00 59 1023.9
20230131234510 23 317 2.0 8.0 0.00 0.00 0.00 60 1023.9
20230131234407 23 338 2.0 8.0 0.00 0.00 0.00 60 1023.9
20230131234308 23 313 3.0 8.0 0.00 0.00 0.00 60 1023.9
20230131234209 23 304 2.0 8.0 0.00 0.00 0.00 60 1024.0
20230131234107 23 315 2.0 8.0 0.00 0.00 0.00 60 1024.0
20230131234007 23 345 3.0 8.0 0.00 0.00 0.00 60 1023.9
20230131233907 23 346 2.0 8.0 0.00 0.00 0.00 60 1023.8
20230131233809 23 308 3.0 8.0 0.00 0.00 0.00 60 1023.8
20230131233607 23 350 3.0 8.0 0.00 0.00 0.00 60 1023.9
20230131233507 23 313 3.0 8.0 0.00 0.00 0.00 59 1023.9
20230131233409 23 350 5.0 8.0 0.00 0.00 0.00 60 1023.8
20230131233307 23 350 6.0 8.0 0.00 0.00 0.00 60 1023.8
20230131233107 23 19 3.0 9.0 0.00 0.00 0.00 60 1023.7
20230131233008 23 343 5.0 9.0 0.00 0.00 0.00 60 1023.6
20230131232907 22 16 5.0 9.0 0.00 0.00 0.00 60 1023.7
20230131232807 22 7 4.0 9.0 0.00 0.00 0.00 60 1023.7
20230131232707 22 17 4.0 9.0 0.00 0.00 0.00 61 1023.7
20230131232609 22 7 2.0 9.0 0.00 0.00 0.00 60 1023.6
20230131232508 22 14 4.0 9.0 0.00 0.00 0.00 60 1023.6
20230131232408 22 11 4.0 9.0 0.00 0.00 0.00 61 1023.6
20230131232307 22 26 4.0 9.0 0.00 0.00 0.00 61 1023.6
20230131232007 22 16 6.0 9.0 0.00 0.00 0.00 60 1023.5
20230131231907 22 14 4.0 9.0 0.00 0.00 0.00 60 1023.5
20230131231810 22 35 5.0 9.0 0.00 0.00 0.00 60 1023.5
20230131231707 22 30 6.0 9.0 0.00 0.00 0.00 61 1023.5
20230131231607 22 19 6.0 11.0 0.00 0.00 0.00 61 1023.5
20230131231409 22 21 7.0 11.0 0.00 0.00 0.00 61 1023.5
20230131231307 23 21 8.0 11.0 0.00 0.00 0.00 61 1023.5
20230131231207 23 19 5.0 11.0 0.00 0.00 0.00 61 1023.5
20230131231009 23 357 5.0 11.0 0.00 0.00 0.00 60 1023.5
20230131230907 23 19 6.0 11.0 0.00 0.00 0.00 60 1023.6
20230131230807 23 2 7.0 11.0 0.00 0.00 0.00 60 1023.6
20230131230707 23 16 8.0 11.0 0.00 0.00 0.00 61 1023.7
20230131230609 23 346 4.0 9.0 0.00 0.00 0.00 61 1023.6
20230131230507 23 14 6.0 9.0 0.00 0.00 0.00 61 1023.6
20230131230407 23 4 6.0 9.0 0.00 0.00 0.00 61 1023.5
20230131230307 23 14 6.0 9.0 0.00 0.00 0.00 61 1023.6
20230131230208 23 321 6.0 9.0 0.00 0.00 0.00 61 1023.5
20230131230107 23 44 4.0 9.0 0.00 0.00 0.00 61 1023.5
20230131230010 23 2 6.0 9.0 0.00 0.00 0.00 61 1023.5
20230131225908 23 357 4.0 9.0 0.00 0.00 0.00 60 1023.5
20230131225809 23 19 5.0 9.0 0.00 0.00 0.00 60 1023.5
20230131225707 23 26 4.0 9.0 0.00 0.00 0.00 60 1023.4
20230131225607 23 36 7.0 9.0 0.00 0.00 0.00 60 1023.4
20230131225507 23 24 6.0 9.0 0.00 0.00 0.00 60 1023.4
20230131225409 23 16 6.0 9.0 0.00 0.00 0.00 59 1023.4
20230131225308 24 360 4.0 9.0 0.00 0.00 0.00 59 1023.4
20230131225207 23 2 4.0 9.0 0.00 0.00 0.00 60 1023.4
20230131225107 23 37 6.0 9.0 0.00 0.00 0.00 60 1023.4
20230131225009 23 16 7.0 9.0 0.00 0.00 0.00 61 1023.4
20230131224908 23 338 2.0 7.0 0.00 0.00 0.00 60 1023.4
20230131224807 23 38 2.0 7.0 0.00 0.00 0.00 60 1023.4
20230131224609 24 308 2.0 8.0 0.00 0.00 0.00 60 1023.5
20230131224507 24 23 4.0 8.0 0.00 0.00 0.00 59 1023.5
20230131224209 23 7 6.0 8.0 0.00 0.00 0.00 60 1023.5
20230131224107 23 10 5.0 8.0 0.00 0.00 0.00 60 1023.5
20230131224007 23 2 5.0 8.0 0.00 0.00 0.00 60 1023.5
20230131223907 23 21 7.0 8.0 0.00 0.00 0.00 60 1023.5
20230131223808 23 351 5.0 8.0 0.00 0.00 0.00 59 1023.6
20230131223607 24 33 5.0 8.0 0.00 0.00 0.00 59 1023.6
20230131223507 24 348 4.0 8.0 0.00 0.00 0.00 58 1023.6
20230131223409 24 4 6.0 8.0 0.00 0.00 0.00 58 1023.6
20230131223308 24 23 7.0 7.0 0.00 0.00 0.00 58 1023.6
20230131223207 24 360 6.0 7.0 0.00 0.00 0.00 59 1023.6
20230131223009 24 16 3.0 10.0 0.00 0.00 0.00 58 1023.7
20230131222907 24 7 4.0 10.0 0.00 0.00 0.00 59 1023.6
20230131222807 24 30 4.0 10.0 0.00 0.00 0.00 59 1023.7
20230131222609 24 360 4.0 10.0 0.00 0.00 0.00 58 1023.6
20230131222507 24 360 4.0 10.0 0.00 0.00 0.00 58 1023.6
20230131222307 24 23 5.0 10.0 0.00 0.00 0.00 58 1023.6
20230131222107 24 352 6.0 10.0 0.00 0.00 0.00 58 1023.7
20230131222007 24 360 3.0 10.0 0.00 0.00 0.00 58 1023.6
20230131221907 24 9 6.0 10.0 0.00 0.00 0.00 58 1023.6
20230131221809 24 338 3.0 10.0 0.00 0.00 0.00 58 1023.6
20230131221708 24 31 4.0 10.0 0.00 0.00 0.00 58 1023.6
20230131221607 24 9 6.0 9.0 0.00 0.00 0.00 58 1023.6
20230131221409 24 5 6.0 9.0 0.00 0.00 0.00 58 1023.6
20230131221207 25 2 7.0 8.0 0.00 0.00 0.00 57 1023.6
20230131221107 25 23 5.0 7.0 0.00 0.00 0.00 57 1023.6
20230131221009 25 11 4.0 7.0 0.00 0.00 0.00 57 1023.5
20230131220907 25 26 6.0 7.0 0.00 0.00 0.00 56 1023.5
20230131220707 26 33 4.0 7.0 0.00 0.00 0.00 53 1023.4
20230131220608 26 17 4.0 7.0 0.00 0.00 0.00 53 1023.4
20230131220507 26 348 3.0 7.0 0.00 0.00 0.00 54 1023.4
20230131220407 26 350 4.0 7.0 0.00 0.00 0.00 54 1023.4
20230131220307 26 357 3.0 7.0 0.00 0.00 0.00 54 1023.3
20230131220209 26 350 4.0 8.0 0.00 0.00 0.00 54 1023.3
20230131220107 26 323 3.0 8.0 0.00 0.00 0.00 54 1023.3
20230131215907 26 308 1.0 8.0 0.00 0.00 0.00 55 1023.2
20230131215809 26 291 2.0 8.0 0.00 0.00 0.00 54 1023.2
20230131215707 26 222 3.0 8.0 0.00 0.00 0.00 54 1023.2
20230131215607 26 321 3.0 8.0 0.00 0.00 0.00 54 1023.1
20230131215507 26 284 2.0 8.0 0.00 0.00 0.00 54 1023.1
20230131215307 26 155 0.0 7.0 0.00 0.00 0.00 53 1023.1
20230131215207 26 288 3.0 7.0 0.00 0.00 0.00 54 1023.1
20230131215107 26 270 4.0 7.0 0.00 0.00 0.00 53 1023.1
20230131215009 26 270 5.0 7.0 0.00 0.00 0.00 53 1023.1
20230131214907 26 308 3.0 7.0 0.00 0.00 0.00 54 1023.1
20230131214807 26 350 4.0 8.0 0.00 0.00 0.00 54 1023.1
20230131214609 26 272 5.0 11.0 0.00 0.00 0.00 54 1023.1
20230131214507 26 210 1.0 11.0 0.00 0.00 0.00 54 1023.1
20230131214407 26 311 2.0 11.0 0.00 0.00 0.00 53 1023.1
20230131214308 26 260 3.0 11.0 0.00 0.00 0.00 55 1023.1
20230131214209 26 260 2.0 11.0 0.00 0.00 0.00 55 1023.1
20230131214107 26 308 2.0 11.0 0.00 0.00 0.00 54 1023.2
20230131214007 26 275 2.0 11.0 0.00 0.00 0.00 54 1023.2
20230131213907 26 295 3.0 11.0 0.00 0.00 0.00 54 1023.2
20230131213809 26 291 2.0 10.0 0.00 0.00 0.00 54 1023.2
20230131213608 26 287 5.0 10.0 0.00 0.00 0.00 55 1023.2
20230131213507 26 294 3.0 10.0 0.00 0.00 0.00 55 1023.2
20230131213408 26 318 4.0 10.0 0.00 0.00 0.00 55 1023.2
20230131213307 26 305 5.0 10.0 0.00 0.00 0.00 54 1023.2
20230131213207 26 310 6.0 14.0 0.00 0.00 0.00 54 1023.2
20230131213107 26 287 9.0 14.0 0.00 0.00 0.00 54 1023.2
20230131213009 26 307 5.0 14.0 0.00 0.00 0.00 54 1023.2
20230131212907 26 348 6.0 14.0 0.00 0.00 0.00 55 1023.2
20230131212807 26 318 9.0 14.0 0.00 0.00 0.00 55 1023.1
20230131212708 26 287 4.0 14.0 0.00 0.00 0.00 55 1023.1
20230131212609 26 287 2.0 14.0 0.00 0.00 0.00 54 1023.1
20230131212507 27 317 7.0 14.0 0.00 0.00 0.00 54 1023.1
20230131212407 27 343 8.0 14.0 0.00 0.00 0.00 54 1023.0
20230131212209 27 327 5.0 10.0 0.00 0.00 0.00 54 1023.0
20230131212107 27 36 2.0 7.0 0.00 0.00 0.00 54 1023.0
20230131212007 27 346 3.0 7.0 0.00 0.00 0.00 55 1023.0
20230131211907 27 293 6.0 7.0 0.00 0.00 0.00 56 1023.0
20230131211809 27 16 2.0 9.0 0.00 0.00 0.00 56 1023.0
20230131211707 27 315 4.0 9.0 0.00 0.00 0.00 55 1022.9
20230131211607 27 338 1.0 9.0 0.00 0.00 0.00 56 1022.9
20230131211507 27 284 2.0 9.0 0.00 0.00 0.00 54 1022.9
20230131211409 27 317 4.0 9.0 0.00 0.00 0.00 53 1022.8
20230131211307 27 294 3.0 9.0 0.00 0.00 0.00 53 1022.8
20230131211207 27 307 4.0 9.0 0.00 0.00 0.00 53 1022.8
20230131211107 27 329 6.0 9.0 0.00 0.00 0.00 53 1022.8
20230131210907 27 293 7.0 9.0 0.00 0.00 0.00 53 1022.8
20230131210807 27 333 7.0 8.0 0.00 0.00 0.00 55 1022.8
20230131210707 27 338 4.0 8.0 0.00 0.00 0.00 55 1022.9
20230131210609 27 305 5.0 8.0 0.00 0.00 0.00 55 1022.8
20230131210507 27 328 3.0 8.0 0.00 0.00 0.00 55 1022.9
20230131210407 27 298 5.0 8.0 0.00 0.00 0.00 54 1022.9
20230131210307 27 324 7.0 7.0 0.00 0.00 0.00 54 1022.9
20230131210107 27 308 2.0 7.0 0.00 0.00 0.00 54 1022.9
20230131210009 27 284 2.0 9.0 0.00 0.00 0.00 54 1022.9
20230131205907 27 272 5.0 9.0 0.00 0.00 0.00 54 1023.0
20230131205806 27 298 5.0 9.0 0.00 0.00 0.00 54 1023.0
20230131205706 27 291 2.0 9.0 0.00 0.00 0.00 54 1022.9
20230131205606 27 253 2.0 9.0 0.00 0.00 0.00 54 1022.9
20230131205508 27 303 3.0 10.0 0.00 0.00 0.00 55 1022.9
20230131205406 27 328 2.0 10.0 0.00 0.00 0.00 55 1022.8
20230131205306 27 317 1.0 14.0 0.00 0.00 0.00 54 1022.9
20230131205206 27 338 1.0 14.0 0.00 0.00 0.00 52 1022.8
20230131204906 27 343 3.0 14.0 0.00 0.00 0.00 54 1022.8
20230131204806 27 286 2.0 14.0 0.00 0.00 0.00 53 1022.8
20230131204708 27 246 2.0 14.0 0.00 0.00 0.00 53 1022.8
20230131204606 27 2 8.0 14.0 0.00 0.00 0.00 53 1022.9
20230131204506 27 314 4.0 14.0 0.00 0.00 0.00 53 1022.9
20230131204307 27 319 5.0 13.0 0.00 0.00 0.00 53 1022.9
20230131204106 27 331 5.0 13.0 0.00 0.00 0.00 51 1022.9
20230131203909 27 253 3.0 13.0 0.00 0.00 0.00 52 1022.9
20230131203806 27 312 7.0 13.0 0.00 0.00 0.00 52 1022.9
20230131203706 27 346 4.0 18.0 0.00 0.00 0.00 52 1022.9
20230131203607 27 286 3.0 18.0 0.00 0.00 0.00 53 1022.9
20230131203508 27 286 5.0 18.0 0.00 0.00 0.00 52 1022.9
20230131203406 27 277 9.0 18.0 0.00 0.00 0.00 52 1022.9
20230131203306 27 343 6.0 18.0 0.00 0.00 0.00 52 1022.8
20230131203206 27 277 5.0 18.0 0.00 0.00 0.00 53 1022.8
20230131203108 27 333 9.0 18.0 0.00 0.00 0.00 54 1022.8
20230131203006 27 338 2.0 18.0 0.00 0.00 0.00 53 1022.8
20230131202906 27 314 7.0 18.0 0.00 0.00 0.00 53 1022.8
20230131202606 27 357 5.0 16.0 0.00 0.00 0.00 52 1022.7
20230131202506 27 331 10.0 16.0 0.00 0.00 0.00 51 1022.7
20230131202406 27 307 6.0 16.0 0.00 0.00 0.00 52 1022.7
20230131202308 27 320 9.0 16.0 0.00 0.00 0.00 53 1022.7
20230131202206 27 289 6.0 16.0 0.00 0.00 0.00 53 1022.7
20230131202106 27 21 6.0 16.0 0.00 0.00 0.00 52 1022.7
20230131202006 27 288 10.0 16.0 0.00 0.00 0.00 52 1022.7
20230131201908 27 296 10.0 16.0 0.00 0.00 0.00 53 1022.7
20230131201806 27 331 5.0 15.0 0.00 0.00 0.00 53 1022.7
20230131201706 28 355 8.0 15.0 0.00 0.00 0.00 53 1022.7
20230131201606 28 304 2.0 15.0 0.00 0.00 0.00 53 1022.7
20230131201407 28 338 5.0 15.0 0.00 0.00 0.00 52 1022.7
20230131201306 28 341 14.0 15.0 0.00 0.00 0.00 52 1022.8
20230131201206 28 5 9.0 15.0 0.00 0.00 0.00 52 1022.7
20230131201109 28 295 5.0 15.0 0.00 0.00 0.00 52 1022.7
20230131200906 28 312 8.0 15.0 0.00 0.00 0.00 52 1022.7
20230131200806 28 348 5.0 15.0 0.00 0.00 0.00 52 1022.7
20230131200708 28 343 12.0 15.0 0.00 0.00 0.00 52 1022.7
20230131200606 28 313 9.0 15.0 0.00 0.00 0.00 52 1022.7
20230131200507 28 325 13.0 15.0 0.00 0.00 0.00 53 1022.8
20230131200408 28 324 5.0 15.0 0.00 0.00 0.00 53 1022.8
20230131200309 28 318 12.0 15.0 0.00 0.00 0.00 52 1022.8
20230131200107 28 338 7.0 13.0 0.00 0.00 0.00 53 1022.8
20230131200009 28 324 6.0 13.0 0.00 0.00 0.00 54 1022.8
20230131195908 28 315 10.0 13.0 0.00 0.00 0.00 55 1022.8
20230131195606 27 321 8.0 16.0 0.00 0.00 0.00 54 1022.9
20230131195507 27 348 7.0 16.0 0.00 0.00 0.00 54 1022.9
20230131195407 27 10 6.0 16.0 0.00 0.00 0.00 54 1022.9
20230131195206 27 12 10.0 16.0 0.00 0.00 0.00 55 1022.9
20230131195107 27 329 5.0 16.0 0.00 0.00 0.00 55 1022.9
20230131194906 28 348 5.0 16.0 0.00 0.00 0.00 55 1022.9
20230131194808 28 301 3.0 16.0 0.00 0.00 0.00 55 1022.9
20230131194707 28 343 5.0 14.0 0.00 0.00 0.00 56 1022.9
20230131194606 28 306 3.0 12.0 0.00 0.00 0.00 56 1023.0
20230131194406 28 352 7.0 10.0 0.00 0.00 0.00 56 1023.0
20230131194308 28 348 4.0 11.0 0.00 0.00 0.00 56 1023.0
20230131194206 28 357 6.0 11.0 0.00 0.00 0.00 56 1023.0
20230131194006 27 329 6.0 13.0 0.00 0.00 0.00 55 1022.9
20230131193907 28 21 3.0 13.0 0.00 0.00 0.00 56 1022.9
20230131193806 28 286 3.0 14.0 0.00 0.00 0.00 56 1022.9
20230131193707 28 217 1.0 14.0 0.00 0.00 0.00 56 1022.9
20230131193606 28 296 2.0 14.0 0.00 0.00 0.00 55 1022.8
20230131193509 28 284 5.0 14.0 0.00 0.00 0.00 56 1022.9
20230131193406 28 315 8.0 15.0 0.00 0.00 0.00 55 1022.9
20230131193306 28 300 6.0 16.0 0.00 0.00 0.00 55 1022.9
20230131193207 28 312 9.0 16.0 0.00 0.00 0.00 56 1022.8
20230131193106 28 304 8.0 16.0 0.00 0.00 0.00 56 1022.9
20230131192906 28 307 12.0 16.0 0.00 0.00 0.00 55 1022.8
20230131192808 28 313 5.0 17.0 0.00 0.00 0.00 55 1022.8
20230131192706 28 325 9.0 17.0 0.00 0.00 0.00 55 1022.8
20230131192606 28 322 8.0 17.0 0.00 0.00 0.00 55 1022.7
20230131192506 28 289 8.0 17.0 0.00 0.00 0.00 54 1022.8
20230131192407 28 7 12.0 17.0 0.00 0.00 0.00 54 1022.7
20230131192206 28 4 8.0 17.0 0.00 0.00 0.00 55 1022.7
20230131192106 28 343 8.0 17.0 0.00 0.00 0.00 54 1022.6
20230131192011 28 329 11.0 17.0 0.00 0.00 0.00 54 1022.6
20230131191906 28 322 8.0 13.0 0.00 0.00 0.00 54 1022.6
20230131191806 28 294 7.0 12.0 0.00 0.00 0.00 54 1022.6
20230131191706 28 345 8.0 12.0 0.00 0.00 0.00 55 1022.6
20230131191506 28 16 2.0 12.0 0.00 0.00 0.00 55 1022.6
20230131191407 28 326 7.0 10.0 0.00 0.00 0.00 55 1022.6
20230131191306 28 321 7.0 10.0 0.00 0.00 0.00 56 1022.6
20230131191207 28 9 5.0 10.0 0.00 0.00 0.00 55 1022.6
20230131191106 28 10 6.0 10.0 0.00 0.00 0.00 55 1022.6
20230131191008 28 308 2.0 10.0 0.00 0.00 0.00 54 1022.6
20230131190906 28 246 5.0 10.0 0.00 0.00 0.00 54 1022.6
20230131190808 28 285 4.0 10.0 0.00 0.00 0.00 54 1022.6
20230131190606 28 315 10.0 10.0 0.00 0.00 0.00 53 1022.6
20230131190506 28 285 7.0 14.0 0.00 0.00 0.00 54 1022.6
20230131190408 29 333 8.0 15.0 0.00 0.00 0.00 54 1022.6
20230131190206 29 279 4.0 21.0 0.00 0.00 0.00 54 1022.6
20230131190106 29 308 4.0 21.0 0.00 0.00 0.00 54 1022.5
20230131185806 28 305 8.0 21.0 0.00 0.00 0.00 53 1022.6
20230131185708 28 319 10.0 21.0 0.00 0.00 0.00 53 1022.6
20230131185607 28 325 10.0 21.0 0.00 0.00 0.00 53 1022.6
20230131185507 28 310 14.0 21.0 0.00 0.00 0.00 54 1022.6
20230131185406 28 338 6.0 21.0 0.00 0.00 0.00 53 1022.6
20230131185206 28 7 18.0 21.0 0.00 0.00 0.00 53 1022.5
20230131185107 28 348 18.0 18.0 0.00 0.00 0.00 54 1022.5
20230131184907 28 338 11.0 17.0 0.00 0.00 0.00 52 1022.4
20230131184806 28 320 17.0 19.0 0.00 0.00 0.00 53 1022.5
20230131184606 28 328 7.0 19.0 0.00 0.00 0.00 53 1022.5
20230131184307 28 315 4.0 20.0 0.00 0.00 0.00 52 1022.5
20230131184206 28 332 7.0 20.0 0.00 0.00 0.00 54 1022.5
20230131184112 29 346 15.0 20.0 0.00 0.00 0.00 54 1022.5
20230131183906 29 9 9.0 20.0 0.00 0.00 0.00 54 1022.5
20230131183807 29 360 11.0 20.0 0.00 0.00 0.00 54 1022.5
20230131183706 29 40 0.0 20.0 0.00 0.00 0.00 53 1022.5
20230131183607 29 301 6.0 20.0 0.00 0.00 0.00 53 1022.5
20230131183506 29 305 10.0 20.0 0.00 0.00 0.00 53 1022.5
20230131183408 29 319 11.0 20.0 0.00 0.00 0.00 54 1022.5
20230131183308 29 329 11.0 17.0 0.00 0.00 0.00 56 1022.5
20230131183107 29 341 7.0 15.0 0.00 0.00 0.00 55 1022.5
20230131182908 29 352 7.0 22.0 0.00 0.00 0.00 54 1022.4
20230131182806 29 7 4.0 22.0 0.00 0.00 0.00 53 1022.4
20230131182606 29 14 9.0 22.0 0.00 0.00 0.00 53 1022.4
20230131182406 29 348 14.0 22.0 0.00 0.00 0.00 54 1022.4
20230131182306 29 28 12.0 22.0 0.00 0.00 0.00 54 1022.4
20230131182206 29 4 12.0 22.0 0.00 0.00 0.00 55 1022.5
20230131182007 29 21 21.0 22.0 0.00 0.00 0.00 55 1022.4
20230131181806 29 11 18.0 21.0 0.00 0.00 0.00 55 1022.4
20230131181708 29 345 17.0 17.0 0.00 0.00 0.00 55 1022.4
20230131181606 30 350 7.0 17.0 0.00 0.00 0.00 54 1022.4
20230131181407 30 270 3.0 17.0 0.00 0.00 0.00 53 1022.4
20230131181207 30 288 6.0 17.0 0.00 0.00 0.00 54 1022.4
20230131181107 30 267 6.0 18.0 0.00 0.00 0.00 54 1022.3
20230131180907 30 268 8.0 21.0 0.00 0.00 0.00 54 1022.3
20230131180806 30 331 13.0 21.0 0.00 0.00 0.00 56 1022.3
20230131180706 30 348 7.0 21.0 0.00 0.00 0.00 56 1022.2
20230131180606 30 220 3.0 21.0 0.00 0.00 0.00 55 1022.3
20230131180508 30 246 9.0 21.0 0.00 0.00 0.00 55 1022.3
20230131180407 30 310 4.0 21.0 0.00 0.00 0.00 57 1022.3
20230131180306 30 23 15.0 21.0 0.00 0.00 0.00 56 1022.2
20230131180108 30 306 3.0 20.0 0.00 0.00 0.00 56 1022.3
20230131180008 29 18 8.0 21.0 0.00 0.00 0.00 55 1022.3
20230131175906 29 355 14.0 21.0 0.00 0.00 0.00 56 1022.2
20230131175706 29 328 11.0 21.0 0.00 0.00 0.00 56 1022.2
20230131175507 29 357 9.0 21.0 0.00 0.00 0.00 58 1022.3
20230131175408 29 311 18.0 21.0 0.00 0.00 0.00 59 1022.3
20230131175306 29 341 12.0 21.0 0.00 0.00 0.00 60 1022.3
20230131174806 30 2 6.0 21.0 0.00 0.00 0.00 57 1022.4
20230131174706 30 338 14.0 21.0 0.00 0.00 0.00 57 1022.5
20230131174608 30 4 13.0 21.0 0.00 0.00 0.00 57 1022.5
20230131174506 31 16 13.0 21.0 0.00 0.00 0.00 57 1022.5
20230131174306 31 12 8.0 21.0 0.00 0.00 0.00 56 1022.6
20230131174207 31 7 16.0 16.0 0.00 0.00 0.00 56 1022.6
20230131174106 31 313 7.0 12.0 0.00 0.00 0.00 57 1022.6
20230131174006 31 341 4.0 12.0 0.00 0.00 0.00 57 1022.6
20230131173906 31 348 5.0 15.0 0.00 0.00 0.00 56 1022.6
20230131173808 31 7 5.0 15.0 0.00 0.00 0.00 56 1022.6
20230131173707 31 353 3.0 15.0 0.00 0.00 0.00 56 1022.5
20230131173606 31 346 9.0 15.0 0.00 0.00 0.00 59 1022.5
20230131173506 31 308 2.0 15.0 0.00 0.00 0.00 58 1022.6
20230131173408 31 360 10.0 15.0 0.00 0.00 0.00 57 1022.5
20230131173306 30 313 6.0 15.0 0.00 0.00 0.00 57 1022.6
20230131173206 30 286 8.0 15.0 0.00 0.00 0.00 58 1022.6
20230131173106 30 332 11.0 15.0 0.00 0.00 0.00 60 1022.6
20230131173008 30 311 7.0 15.0 0.00 0.00 0.00 59 1022.6
20230131172907 30 346 4.0 15.0 0.00 0.00 0.00 59 1022.5
20230131172708 30 324 6.0 15.0 0.00 0.00 0.00 59 1022.5
20230131172608 30 312 9.0 15.0 0.00 0.00 0.00 59 1022.5
20230131172506 30 353 4.0 15.0 0.00 0.00 0.00 60 1022.5
20230131172406 30 314 7.0 15.0 0.00 0.00 0.00 59 1022.6
20230131172306 30 326 7.0 15.0 0.00 0.00 0.00 58 1022.6
20230131172208 30 312 2.0 15.0 0.00 0.00 0.00 59 1022.6
20230131172106 30 352 7.0 15.0 0.00 0.00 0.00 60 1022.6
20230131172006 30 325 6.0 15.0 0.00 0.00 0.00 60 1022.6
20230131171906 30 360 12.0 18.0 0.00 0.00 0.00 60 1022.6
20230131171808 30 357 8.0 18.0 0.00 0.00 0.00 60 1022.6
20230131171706 30 306 10.0 18.0 0.00 0.00 0.00 60 1022.6
20230131171606 30 338 5.0 18.0 0.00 0.00 0.00 60 1022.6
20230131171506 30 358 8.0 18.0 0.00 0.00 0.00 60 1022.6
20230131171409 30 23 10.0 18.0 0.00 0.00 0.00 60 1022.6
20230131171307 30 338 14.0 18.0 0.00 0.00 0.00 60 1022.6
20230131171206 31 331 9.0 18.0 0.00 0.00 0.00 60 1022.6
20230131171008 31 2 8.0 14.0 0.00 0.00 0.00 62 1022.5
20230131170907 31 324 7.0 14.0 0.00 0.00 0.00 62 1022.5
20230131170806 31 2 7.0 21.0 0.00 0.00 0.00 61 1022.5
20230131170609 31 4 8.0 21.0 0.00 0.00 0.00 61 1022.4
20230131170506 31 346 12.0 21.0 0.00 0.00 0.00 60 1022.5
20230131170406 31 328 6.0 21.0 0.00 0.00 0.00 60 1022.5
20230131170306 31 11 6.0 21.0 0.00 0.00 0.00 60 1022.5
20230131170206 31 277 4.0 21.0 0.00 0.00 0.00 62 1022.5
20230131170108 31 300 7.0 21.0 0.00 0.00 0.00 62 1022.4
20230131170008 31 338 20.0 22.0 0.00 0.00 0.00 62 1022.4
20230131165808 30 304 6.0 22.0 0.00 0.00 0.00 62 1022.5
20230131165706 30 338 9.0 22.0 0.00 0.00 0.00 62 1022.4
20230131165606 30 331 9.0 22.0 0.00 0.00 0.00 61 1022.4
20230131165507 30 7 11.0 22.0 0.00 0.00 0.00 63 1022.4
20230131165408 30 338 11.0 22.0 0.00 0.00 0.00 61 1022.5
20230131165306 30 28 13.0 22.0 0.00 0.00 0.00 61 1022.5
20230131165206 31 351 15.0 22.0 0.00 0.00 0.00 62 1022.6
20230131165008 31 296 6.0 16.0 0.00 0.00 0.00 63 1022.7
20230131164906 31 325 12.0 16.0 0.00 0.00 0.00 64 1022.6
20230131164806 30 200 1.0 16.0 0.00 0.00 0.00 64 1022.6
20230131164706 30 23 2.0 16.0 0.00 0.00 0.00 64 1022.6
20230131164406 31 328 14.0 23.0 0.00 0.00 0.00 65 1022.7
20230131164207 30 215 2.0 23.0 0.00 0.00 0.00 66 1022.7
20230131164006 30 348 9.0 23.0 0.00 0.00 0.00 64 1022.7
20230131163807 30 328 8.0 23.0 0.00 0.00 0.00 64 1022.7
20230131163606 30 287 9.0 23.0 0.00 0.00 0.00 65 1022.7
20230131163506 30 295 10.0 17.0 0.00 0.00 0.00 65 1022.8
20230131163408 30 350 11.0 17.0 0.00 0.00 0.00 65 1022.7
20230131163307 30 286 13.0 18.0 0.00 0.00 0.00 65 1022.8
20230131163206 30 318 9.0 20.0 0.00 0.00 0.00 66 1022.8
20230131163107 30 306 7.0 27.0 0.00 0.00 0.00 65 1022.8
20230131163006 30 323 4.0 27.0 0.00 0.00 0.00 65 1022.8
20230131162908 30 352 9.0 27.0 0.00 0.00 0.00 66 1022.7
20230131162806 30 289 9.0 27.0 0.00 0.00 0.00 66 1022.7
20230131162706 30 338 4.0 27.0 0.00 0.00 0.00 66 1022.7
20230131162606 30 281 14.0 27.0 0.00 0.00 0.00 66 1022.8
20230131162508 30 348 10.0 27.0 0.00 0.00 0.00 66 1022.8
20230131162406 30 319 7.0 27.0 0.00 0.00 0.00 66 1022.7
20230131162306 31 353 14.0 27.0 0.00 0.00 0.00 68 1022.8
20230131162108 30 321 4.0 20.0 0.00 0.00 0.00 68 1022.8
20230131162006 30 274 9.0 20.0 0.00 0.00 0.00 67 1022.8
20230131161906 30 343 7.0 20.0 0.00 0.00 0.00 67 1022.8
20230131161708 30 307 13.0 20.0 0.00 0.00 0.00 69 1022.8
20230131161506 30 19 8.0 20.0 0.00 0.00 0.00 69 1022.7
20230131161406 30 321 15.0 20.0 0.00 0.00 0.00 70 1022.8
20230131161308 30 319 8.0 18.0 0.00 0.00 0.00 70 1022.7
20230131161207 30 350 12.0 18.0 0.00 0.00 0.00 70 1022.8
20230131161106 30 9 8.0 19.0 0.00 0.00 0.00 71 1022.8
20230131161008 30 329 14.0 19.0 0.00 0.00 0.00 71 1022.7
20230131160906 30 360 11.0 19.0 0.00 0.00 0.00 71 1022.7
20230131160706 30 312 8.0 19.0 0.00 0.00 0.00 71 1022.7
20230131160607 30 353 7.0 19.0 0.00 0.00 0.00 71 1022.7
20230131160506 31 333 7.0 19.0 0.00 0.00 0.00 71 1022.7
20230131160406 31 319 15.0 19.0 0.00 0.00 0.00 70 1022.7
20230131160307 31 7 16.0 19.0 0.00 0.00 0.00 70 1022.7
20230131160106 31 337 10.0 17.0 0.00 0.00 0.00 69 1022.7
20230131160008 32 299 16.0 17.0 0.00 0.00 0.00 68 1022.7
20230131155906 32 357 15.0 17.0 0.00 0.00 0.00 68 1022.6
20230131155807 32 301 5.0 16.0 0.00 0.00 0.00 68 1022.6
20230131155706 32 23 5.0 15.0 0.00 0.00 0.00 68 1022.6
20230131155606 33 324 10.0 15.0 0.00 0.00 0.00 69 1022.6
20230131155506 33 333 9.0 15.0 0.00 0.00 0.00 69 1022.6
20230131155408 33 292 7.0 13.0 0.00 0.00 0.00 69 1022.6
20230131155307 33 346 4.0 12.0 0.00 0.00 0.00 70 1022.6
20230131155009 33 318 7.0 13.0 0.00 0.00 0.00 71 1022.6
20230131154906 33 308 2.0 15.0 0.00 0.00 0.00 70 1022.6
20230131154806 33 303 7.0 15.0 0.00 0.00 0.00 70 1022.6
20230131154706 33 316 6.0 15.0 0.00 0.00 0.00 70 1022.6
20230131154608 33 308 8.0 15.0 0.00 0.00 0.00 71 1022.6
20230131154506 33 306 6.0 15.0 0.00 0.00 0.00 71 1022.6
20230131154406 32 314 6.0 15.0 0.00 0.00 0.00 70 1022.6
20230131154306 32 30 4.0 15.0 0.00 0.00 0.00 70 1022.6
20230131154208 32 300 11.0 15.0 0.00 0.00 0.00 69 1022.6
20230131154106 33 310 9.0 15.0 0.00 0.00 0.00 70 1022.6
20230131154006 32 289 6.0 14.0 0.00 0.00 0.00 70 1022.7
20230131153906 32 337 8.0 14.0 0.00 0.00 0.00 70 1022.7
20230131153808 32 287 10.0 14.0 0.00 0.00 0.00 69 1022.6
20230131153706 32 302 14.0 14.0 0.00 0.00 0.00 69 1022.6
20230131153606 32 290 11.0 14.0 0.00 0.00 0.00 70 1022.6
20230131153506 32 329 8.0 14.0 0.00 0.00 0.00 70 1022.6
20230131153407 32 291 2.0 14.0 0.00 0.00 0.00 70 1022.6
20230131153206 32 270 7.0 15.0 0.00 0.00 0.00 70 1022.5
20230131153106 32 324 4.0 15.0 0.00 0.00 0.00 69 1022.5
20230131153008 32 314 9.0 15.0 0.00 0.00 0.00 69 1022.5
20230131152906 32 313 5.0 17.0 0.00 0.00 0.00 69 1022.5
20230131152709 32 23 3.0 18.0 0.00 0.00 0.00 70 1022.5
20230131152606 32 307 6.0 18.0 0.00 0.00 0.00 69 1022.5
20230131152506 32 320 5.0 18.0 0.00 0.00 0.00 70 1022.6
20230131152406 32 14 3.0 18.0 0.00 0.00 0.00 70 1022.5
20230131152307 32 295 5.0 18.0 0.00 0.00 0.00 70 1022.6
20230131152206 31 324 6.0 18.0 0.00 0.00 0.00 70 1022.6
20230131152106 31 333 7.0 18.0 0.00 0.00 0.00 70 1022.5
20230131152006 31 316 14.0 17.0 0.00 0.00 0.00 71 1022.5
20230131151910 31 355 5.0 17.0 0.00 0.00 0.00 71 1022.5
20230131151806 31 326 8.0 17.0 0.00 0.00 0.00 71 1022.6
20230131151608 31 277 14.0 17.0 0.00 0.00 0.00 71 1022.6
20230131151506 31 323 4.0 16.0 0.00 0.00 0.00 70 1022.6
20230131151406 31 327 8.0 16.0 0.00 0.00 0.00 70 1022.6
20230131151306 31 341 7.0 16.0 0.00 0.00 0.00 70 1022.6
20230131151208 31 324 13.0 16.0 0.00 0.00 0.00 70 1022.6
20230131151106 31 313 10.0 16.0 0.00 0.00 0.00 70 1022.5
20230131151007 31 341 12.0 16.0 0.00 0.00 0.00 70 1022.5
20230131150908 31 51 3.0 16.0 0.00 0.00 0.00 70 1022.5
20230131150806 31 288 11.0 16.0 0.00 0.00 0.00 70 1022.5
20230131150606 31 296 3.0 16.0 0.00 0.00 0.00 70 1022.4
20230131150406 31 291 2.0 16.0 0.00 0.00 0.00 70 1022.4
20230131150306 31 300 8.0 10.0 0.00 0.00 0.00 70 1022.4
20230131150206 31 294 6.0 8.0 0.00 0.00 0.00 70 1022.3
20230131150108 31 308 3.0 8.0 0.00 0.00 0.00 70 1022.3
20230131150008 31 291 1.0 9.0 0.00 0.00 0.00 70 1022.3
20230131145906 31 322 2.0 9.0 0.00 0.00 0.00 70 1022.2
20230131145808 31 28 3.0 11.0 0.00 0.00 0.00 70 1022.2
20230131145706 31 282 2.0 11.0 0.00 0.00 0.00 71 1022.2
20230131145606 31 341 5.0 11.0 0.00 0.00 0.00 71 1022.2
20230131145506 31 246 1.0 11.0 0.00 0.00 0.00 70 1022.1
20230131145408 31 296 6.0 11.0 0.00 0.00 0.00 70 1022.1
20230131145306 31 345 2.0 11.0 0.00 0.00 0.00 70 1022.1
20230131145206 31 23 5.0 11.0 0.00 0.00 0.00 71 1022.1
20230131145106 31 338 4.0 11.0 0.00 0.00 0.00 71 1022.1
20230131145009 31 24 6.0 11.0 0.00 0.00 0.00 71 1022.1
20230131144906 31 2 11.0 11.0 0.00 0.00 0.00 72 1022.0
20230131144806 31 21 9.0 12.0 0.00 0.00 0.00 73 1022.0
20230131144706 31 332 5.0 12.0 0.00 0.00 0.00 72 1022.0
20230131144608 31 291 1.0 14.0 0.00 0.00 0.00 73 1022.0
20230131144506 31 18 7.0 15.0 0.00 0.00 0.00 72 1022.0
20230131144406 31 21 9.0 15.0 0.00 0.00 0.00 72 1022.0
20230131144306 31 10 6.0 15.0 0.00 0.00 0.00 72 1022.0
20230131144106 31 37 7.0 15.0 0.00 0.00 0.00 72 1022.0
20230131144006 31 333 6.0 15.0 0.00 0.00 0.00 72 1021.9
20230131143906 31 355 11.0 15.0 0.00 0.00 0.00 72 1022.0
20230131143808 31 14 9.0 17.0 0.00 0.00 0.00 72 1021.9
20230131143706 31 343 10.0 17.0 0.00 0.00 0.00 73 1021.9
20230131143606 31 17 13.0 17.0 0.00 0.00 0.00 74 1021.9
20230131143506 31 35 12.0 17.0 0.00 0.00 0.00 73 1021.9
20230131143408 31 21 6.0 17.0 0.00 0.00 0.00 73 1021.9
20230131143306 31 332 6.0 17.0 0.00 0.00 0.00 74 1021.9
20230131143206 31 357 6.0 17.0 0.00 0.00 0.00 73 1021.8
20230131143106 31 353 9.0 17.0 0.00 0.00 0.00 73 1021.8
20230131143008 31 357 7.0 17.0 0.00 0.00 0.00 74 1021.7
20230131142906 31 18 9.0 9.0 0.00 0.00 0.00 74 1021.8
20230131142706 31 345 8.0 9.0 0.00 0.00 0.00 75 1021.7
20230131142608 31 326 3.0 9.0 0.00 0.00 0.00 75 1021.8
20230131142506 31 308 5.0 9.0 0.00 0.00 0.00 76 1021.7
20230131142406 31 350 6.0 9.0 0.00 0.00 0.00 76 1021.7
20230131142309 31 357 5.0 9.0 0.00 0.00 0.00 76 1021.7
20230131142206 31 345 4.0 9.0 0.00 0.00 0.00 76 1021.6
20230131142106 31 314 6.0 9.0 0.00 0.00 0.00 76 1021.7
20230131142006 31 4 4.0 9.0 0.00 0.00 0.00 76 1021.6
20230131141908 31 21 4.0 9.0 0.00 0.00 0.00 75 1021.5
20230131141806 31 24 7.0 9.0 0.00 0.00 0.00 76 1021.5
20230131141706 31 26 9.0 9.0 0.00 0.00 0.00 76 1021.5
20230131141606 31 37 6.0 8.0 0.00 0.00 0.00 76 1021.5
20230131141509 31 54 5.0 8.0 0.00 0.00 0.00 76 1021.5
20230131141406 31 26 4.0 8.0 0.00 0.00 0.00 76 1021.5
20230131141306 31 33 6.0 8.0 0.00 0.00 0.00 76 1021.4
20230131141108 31 28 5.0 8.0 0.00 0.00 0.00 77 1021.4
20230131141006 31 42 6.0 8.0 0.00 0.00 0.00 77 1021.4
20230131140907 31 360 5.0 8.0 0.00 0.00 0.00 77 1021.4
20230131140807 31 19 7.0 8.0 0.00 0.00 0.00 76 1021.4
20230131140706 31 21 7.0 8.0 0.00 0.00 0.00 77 1021.3
20230131140606 31 21 5.0 7.0 0.00 0.00 0.00 77 1021.2
20230131140508 31 26 5.0 7.0 0.00 0.00 0.00 77 1021.2
20230131140406 31 14 4.0 7.0 0.00 0.00 0.00 77 1021.2
20230131140306 31 45 3.0 7.0 0.00 0.00 0.00 78 1021.2
20230131140206 31 49 7.0 7.0 0.00 0.00 0.00 79 1021.2
20230131135905 30 19 3.0 7.0 0.00 0.00 0.00 78 1021.3
20230131135806 30 52 4.0 7.0 0.00 0.00 0.00 78 1021.4
20230131135705 30 17 6.0 8.0 0.00 0.00 0.00 78 1021.4
20230131135605 30 17 6.0 8.0 0.00 0.00 0.00 78 1021.4
20230131135505 30 51 5.0 8.0 0.00 0.00 0.00 78 1021.4
20230131135306 30 23 5.0 10.0 0.00 0.00 0.00 78 1021.4
20230131135205 30 324 3.0 10.0 0.00 0.00 0.00 78 1021.3
20230131135105 30 343 3.0 10.0 0.00 0.00 0.00 79 1021.4
20230131135007 30 23 1.0 10.0 0.00 0.00 0.00 79 1021.4
20230131134805 30 348 6.0 14.0 0.00 0.00 0.00 79 1021.4
20230131134705 31 357 6.0 14.0 0.00 0.00 0.00 80 1021.4
20230131134606 31 304 6.0 14.0 0.00 0.00 0.00 80 1021.4
20230131134405 31 357 4.0 14.0 0.00 0.00 0.00 80 1021.4
20230131134305 31 296 1.0 14.0 0.00 0.00 0.00 80 1021.4
20230131134206 31 303 2.0 14.0 0.00 0.00 0.00 80 1021.3
20230131134104 31 326 4.0 14.0 0.00 0.00 0.00 80 1021.3
20230131134005 31 319 9.0 14.0 0.00 0.00 0.00 80 1021.3
20230131133905 31 324 8.0 14.0 0.00 0.00 0.00 80 1021.3
20230131133806 31 287 9.0 10.0 0.00 0.00 0.00 80 1021.3
20230131133704 31 272 2.0 12.0 0.00 0.00 0.00 79 1021.3
20230131133605 31 316 4.0 12.0 0.00 0.00 0.00 79 1021.2
20230131133505 31 19 5.0 12.0 0.00 0.00 0.00 80 1021.2
20230131133205 31 325 6.0 12.0 0.00 0.00 0.00 80 1021.2
20230131133004 31 326 10.0 12.0 0.00 0.00 0.00 80 1021.2
20230131132905 31 320 12.0 12.0 0.00 0.00 0.00 79 1021.2
20230131132805 31 313 4.0 12.0 0.00 0.00 0.00 79 1021.1
20230131132707 31 316 8.0 10.0 0.00 0.00 0.00 79 1021.2
20230131132605 31 355 6.0 10.0 0.00 0.00 0.00 79 1021.2
20230131132505 31 345 7.0 10.0 0.00 0.00 0.00 79 1021.1
20230131132405 31 299 7.0 9.0 0.00 0.00 0.00 79 1021.1
20230131132306 31 305 6.0 7.0 0.00 0.00 0.00 79 1021.1
20230131132205 31 322 5.0 7.0 0.00 0.00 0.00 79 1021.1
20230131132105 31 348 2.0 8.0 0.00 0.00 0.00 79 1021.0
20230131132005 31 10 4.0 8.0 0.00 0.00 0.00 79 1021.0
20230131131908 31 294 3.0 8.0 0.00 0.00 0.00 79 1021.0
20230131131805 31 331 3.0 8.0 0.00 0.00 0.00 79 1021.0
20230131131605 31 326 2.0 8.0 0.00 0.00 0.00 80 1020.9
20230131131507 31 16 2.0 8.0 0.00 0.00 0.00 80 1020.9
20230131131405 31 346 3.0 8.0 0.00 0.00 0.00 82 1020.8
20230131131306 31 291 5.0 8.0 0.00 0.00 0.00 82 1020.8
20230131131005 30 355 3.0 7.0 0.00 0.00 0.00 85 1020.8
20230131130805 30 357 3.0 7.0 0.00 0.00 0.00 86 1020.8
20230131130706 30 323 5.0 6.0 0.00 0.00 0.00 87 1020.8
20230131130605 30 246 2.0 5.0 0.00 0.00 0.00 87 1020.8
20230131130505 30 200 0.0 5.0 0.00 0.00 0.00 87 1020.8
20230131130406 30 246 1.0 5.0 0.00 0.00 0.00 87 1020.8
20230131130307 29 291 2.0 5.0 0.00 0.00 0.00 87 1020.8
20230131130205 29 305 3.0 5.0 0.00 0.00 0.00 87 1020.8
20230131130105 29 285 2.0 4.0 0.00 0.00 0.00 87 1020.8
20230131130007 29 5 1.0 4.0 0.00 0.00 0.00 87 1020.8
20230131125705 29 23 0.0 5.0 0.00 0.00 0.00 87 1020.8
20230131125505 29 33 2.0 5.0 0.00 0.00 0.00 87 1020.8
20230131125405 29 338 1.0 5.0 0.00 0.00 0.00 87 1020.8
20230131125305 29 338 2.0 5.0 0.00 0.00 0.00 87 1020.8
20230131125206 29 28 3.0 5.0 0.00 0.00 0.00 87 1020.8
20230131125105 29 352 1.0 5.0 0.00 0.00 0.00 87 1020.8
20230131125005 29 321 2.0 5.0 0.00 0.00 0.00 87 1020.8
20230131124905 29 2 4.0 4.0 0.00 0.00 0.00 87 1020.7
20230131124806 29 350 2.0 4.0 0.00 0.00 0.00 87 1020.7
20230131124605 29 326 2.0 4.0 0.00 0.00 0.00 87 1020.7
20230131124505 29 317 2.0 4.0 0.00 0.00 0.00 87 1020.7
20230131124407 29 16 1.0 4.0 0.00 0.00 0.00 87 1020.7
20230131124305 29 338 2.0 4.0 0.00 0.00 0.00 87 1020.6
20230131124205 29 304 2.0 4.0 0.00 0.00 0.00 87 1020.6
20230131124105 29 305 2.0 4.0 0.00 0.00 0.00 87 1020.6
20230131124007 29 311 3.0 5.0 0.00 0.00 0.00 87 1020.6
20230131123905 29 345 3.0 5.0 0.00 0.00 0.00 87 1020.5
20230131123805 29 319 3.0 6.0 0.00 0.00 0.00 87 1020.5
20230131123705 29 308 2.0 6.0 0.00 0.00 0.00 87 1020.5
20230131123606 29 303 3.0 6.0 0.00 0.00 0.00 87 1020.5
20230131123505 29 305 3.0 6.0 0.00 0.00 0.00 87 1020.5
20230131123405 29 272 2.0 6.0 0.00 0.00 0.00 87 1020.5
20230131123305 29 311 3.0 6.0 0.00 0.00 0.00 87 1020.5
20230131123206 29 317 4.0 6.0 0.00 0.00 0.00 87 1020.4
20230131123107 29 338 2.0 7.0 0.00 0.00 0.00 87 1020.4
20230131123005 29 308 4.0 7.0 0.00 0.00 0.00 87 1020.3
20230131122905 29 324 3.0 7.0 0.00 0.00 0.00 87 1020.3
20230131122808 29 348 2.0 7.0 0.00 0.00 0.00 87 1020.3
20230131122705 29 304 3.0 7.0 0.00 0.00 0.00 87 1020.3
20230131122605 29 315 4.0 7.0 0.00 0.00 0.00 87 1020.2
20230131122506 29 311 3.0 7.0 0.00 0.00 0.00 87 1020.2
20230131122307 29 315 3.0 7.0 0.00 0.00 0.00 87 1020.2
20230131122108 29 358 2.0 7.0 0.00 0.00 0.00 87 1020.1
20230131122005 29 345 4.0 7.0 0.00 0.00 0.00 87 1020.2
20230131121905 29 345 3.0 7.0 0.00 0.00 0.00 87 1020.1
20230131121806 29 351 5.0 7.0 0.00 0.00 0.00 87 1020.1
20230131121705 29 5 4.0 7.0 0.00 0.00 0.00 87 1020.1
20230131121605 29 325 3.0 7.0 0.00 0.00 0.00 87 1020.1
20230131121505 29 338 3.0 7.0 0.00 0.00 0.00 87 1020.1
20230131121406 29 346 3.0 7.0 0.00 0.00 0.00 87 1020.1
20230131121305 29 358 3.0 7.0 0.00 0.00 0.00 87 1020.1
20230131121105 30 14 4.0 7.0 0.00 0.00 0.00 87 1020.0
20230131121006 30 26 6.0 6.0 0.00 0.00 0.00 88 1020.0
20230131120905 29 16 4.0 5.0 0.00 0.00 0.00 88 1020.0
20230131120805 30 18 3.0 4.0 0.00 0.00 0.00 88 1020.0
20230131120705 30 355 3.0 4.0 0.00 0.00 0.00 88 1019.9
20230131120606 30 12 2.0 4.0 0.00 0.00 0.00 88 1019.9
20230131120505 30 357 2.0 4.0 0.00 0.00 0.00 88 1019.9
20230131120405 30 323 2.0 4.0 0.00 0.00 0.00 88 1019.9
20230131120306 30 338 2.0 4.0 0.00 0.00 0.00 88 1019.9
20230131120206 30 313 2.0 4.0 0.00 0.00 0.00 88 1019.9
20230131120105 30 321 2.0 5.0 0.00 0.00 0.00 88 1020.0
20230131120007 30 291 4.0 6.0 0.00 0.00 0.00 88 1020.0
20230131115907 30 308 2.0 6.0 0.00 0.00 0.00 88 1020.0
20230131115805 30 317 3.0 6.0 0.00 0.00 0.00 88 1020.0
20230131115705 30 291 1.0 6.0 0.00 0.00 0.00 88 1019.9
20230131115506 30 312 2.0 6.0 0.00 0.00 0.00 88 1019.8
20230131115405 30 301 2.0 6.0 0.00 0.00 0.00 88 1019.8
20230131115306 30 324 2.0 6.0 0.00 0.00 0.00 88 1019.8
20230131115205 30 294 4.0 6.0 0.00 0.00 0.00 88 1019.8
20230131115106 30 331 6.0 6.0 0.00 0.00 0.00 88 1019.8
20230131115005 30 312 2.0 5.0 0.00 0.00 0.00 88 1019.8
20230131114905 30 350 2.0 5.0 0.00 0.00 0.00 88 1019.7
20230131114706 30 2 3.0 6.0 0.00 0.00 0.00 88 1019.8
20230131114605 30 331 3.0 6.0 0.00 0.00 0.00 88 1019.8
20230131114405 30 308 1.0 6.0 0.00 0.00 0.00 88 1019.8
20230131114307 30 324 1.0 6.0 0.00 0.00 0.00 88 1019.7
20230131114105 30 2 2.0 6.0 0.00 0.00 0.00 88 1019.7
20230131114005 30 10 4.0 6.0 0.00 0.00 0.00 88 1019.6
20230131113907 30 9 5.0 6.0 0.00 0.00 0.00 88 1019.6
20230131113806 30 14 3.0 5.0 0.00 0.00 0.00 88 1019.6
20230131113705 30 2 3.0 6.0 0.00 0.00 0.00 88 1019.7
20230131113605 30 23 2.0 6.0 0.00 0.00 0.00 88 1019.7
20230131113405 30 317 1.0 6.0 0.00 0.00 0.00 88 1019.8
20230131113305 30 312 2.0 6.0 0.00 0.00 0.00 88 1019.8
20230131113205 30 5 3.0 6.0 0.00 0.00 0.00 88 1019.8
20230131113106 30 2 3.0 6.0 0.00 0.00 0.00 88 1019.7
20230131113005 30 23 3.0 7.0 0.00 0.00 0.00 88 1019.7
20230131112706 30 2 3.0 7.0 0.00 0.00 0.00 88 1019.7
20230131112605 30 312 3.0 7.0 0.00 0.00 0.00 88 1019.7
20230131112506 30 304 3.0 7.0 0.00 0.00 0.00 88 1019.6
20230131112405 30 352 4.0 7.0 0.00 0.00 0.00 88 1019.6
20230131112308 30 353 4.0 7.0 0.00 0.00 0.00 88 1019.6
20230131112205 30 358 5.0 7.0 0.00 0.00 0.00 88 1019.6
20230131112007 30 360 4.0 6.0 0.00 0.00 0.00 88 1019.7
20230131111905 30 9 4.0 5.0 0.00 0.00 0.00 88 1019.7
20230131111805 30 21 4.0 4.0 0.00 0.00 0.00 88 1019.7
20230131111609 30 5 2.0 3.0 0.00 0.00 0.00 88 1019.6
20230131111505 30 338 2.0 5.0 0.00 0.00 0.00 88 1019.6
20230131111405 30 328 3.0 5.0 0.00 0.00 0.00 88 1019.6
20230131111105 30 357 2.0 5.0 0.00 0.00 0.00 88 1019.6
20230131111005 30 23 2.0 5.0 0.00 0.00 0.00 88 1019.5
20230131110905 30 33 2.0 5.0 0.00 0.00 0.00 88 1019.4
20230131110807 30 58 2.0 5.0 0.00 0.00 0.00 88 1019.4
20230131110605 30 56 2.0 2.0 0.00 0.00 0.00 88 1019.5
20230131110505 30 85 1.0 2.0 0.00 0.00 0.00 88 1019.6
20230131110406 30 23 0.0 2.0 0.00 0.00 0.00 88 1019.7
20230131110305 30 246 0.0 2.0 0.00 0.00 0.00 88 1019.7
20230131110207 30 291 1.0 2.0 0.00 0.00 0.00 88 1019.7
20230131110106 30 338 1.0 2.0 0.00 0.00 0.00 88 1019.6
20230131110009 30 338 0.0 2.0 0.00 0.00 0.00 88 1019.6
20230131105905 30 5 2.0 2.0 0.00 0.00 0.00 88 1019.6
20230131105805 30 5 0.0 2.0 0.00 0.00 0.00 88 1019.6
20230131105705 30 183 0.0 2.0 0.00 0.00 0.00 88 1019.7
20230131105607 30 217 0.0 2.0 0.00 0.00 0.00 88 1019.8
20230131105505 30 291 1.0 2.0 0.00 0.00 0.00 88 1019.6
20230131105305 30 357 1.0 3.0 0.00 0.00 0.00 88 1019.5
20230131105207 30 5 1.0 3.0 0.00 0.00 0.00 88 1019.5
20230131105105 30 291 0.0 3.0 0.00 0.00 0.00 88 1019.6
20230131105005 30 272 0.0 3.0 0.00 0.00 0.00 88 1019.6
20230131104905 30 291 1.0 3.0 0.00 0.00 0.00 88 1019.4
20230131104705 30 33 1.0 3.0 0.00 0.00 0.00 88 1019.1
20230131104605 30 348 2.0 3.0 0.00 0.00 0.00 88 1019.1
20230131104505 30 350 2.0 3.0 0.00 0.00 0.00 88 1019.0
20230131104406 30 317 1.0 3.0 0.00 0.00 0.00 88 1019.2
20230131104305 30 338 1.0 3.0 0.00 0.00 0.00 88 1019.1
20230131104205 30 5 1.0 4.0 0.00 0.00 0.00 88 1019.1
20230131104105 30 33 1.0 4.0 0.00 0.00 0.00 88 1019.1
20230131104007 30 66 0.0 4.0 0.00 0.00 0.00 88 1019.2
20230131103905 30 291 1.0 4.0 0.00 0.00 0.00 88 1019.2
20230131103805 30 291 0.0 4.0 0.00 0.00 0.00 88 1019.2
20230131103705 30 246 0.0 4.0 0.00 0.00 0.00 88 1019.2
20230131103607 30 246 1.0 4.0 0.00 0.00 0.00 88 1019.2
20230131103505 30 298 2.0 4.0 0.00 0.00 0.00 88 1019.1
20230131103305 30 338 4.0 4.0 0.00 0.00 0.00 88 1019.1
20230131103206 30 321 1.0 3.0 0.00 0.00 0.00 88 1019.2
20230131103105 30 360 2.0 4.0 0.00 0.00 0.00 88 1019.2
20230131103005 30 23 0.0 4.0 0.00 0.00 0.00 88 1019.4
20230131102905 30 291 1.0 4.0 0.00 0.00 0.00 88 1019.4
20230131102806 30 352 1.0 4.0 0.00 0.00 0.00 88 1019.3
20230131102705 30 326 2.0 4.0 0.00 0.00 0.00 88 1019.3
20230131102605 30 350 2.0 4.0 0.00 0.00 0.00 88 1019.3
20230131102505 30 338 2.0 4.0 0.00 0.00 0.00 88 1019.4
20230131102407 30 352 2.0 4.0 0.00 0.00 0.00 88 1019.3
20230131102306 30 319 3.0 4.0 0.00 0.00 0.00 88 1019.2
20230131102205 30 338 3.0 4.0 0.00 0.00 0.00 88 1019.2
20230131102105 30 358 3.0 4.0 0.00 0.00 0.00 88 1019.1
20230131102006 30 328 3.0 4.0 0.00 0.00 0.00 88 1019.1
20230131101905 30 317 2.0 4.0 0.00 0.00 0.00 88 1019.1
20230131101805 30 313 2.0 4.0 0.00 0.00 0.00 88 1019.1
20230131101607 30 317 2.0 4.0 0.00 0.00 0.00 89 1019.1
20230131101505 30 301 2.0 4.0 0.00 0.00 0.00 89 1019.1
20230131101405 30 338 0.0 5.0 0.00 0.00 0.00 89 1019.0
20230131101307 30 308 1.0 5.0 0.00 0.00 0.00 89 1019.0
20230131101207 30 308 2.0 5.0 0.00 0.00 0.00 89 1019.0
20230131101105 30 338 2.0 5.0 0.00 0.00 0.00 89 1019.0
20230131101005 30 5 2.0 5.0 0.00 0.00 0.00 89 1018.9
20230131100905 30 28 3.0 5.0 0.00 0.00 0.00 89 1018.9
20230131100808 30 5 2.0 5.0 0.00 0.00 0.00 89 1018.9
20230131100705 30 263 1.0 5.0 0.00 0.00 0.00 89 1019.0
20230131100605 30 295 2.0 5.0 0.00 0.00 0.00 89 1018.9
20230131100407 30 321 2.0 5.0 0.00 0.00 0.00 89 1018.9
20230131100205 30 313 1.0 3.0 0.00 0.00 0.00 89 1018.9
20230131100105 30 246 2.0 3.0 0.00 0.00 0.00 89 1018.8
20230131095805 30 291 1.0 4.0 0.00 0.00 0.00 89 1018.9
20230131095707 30 253 2.0 4.0 0.00 0.00 0.00 89 1018.9
20230131095605 30 272 3.0 4.0 0.00 0.00 0.00 89 1018.9
20230131095405 30 308 2.0 4.0 0.00 0.00 0.00 89 1018.9
20230131095307 30 323 3.0 4.0 0.00 0.00 0.00 89 1018.8
20230131095205 30 326 3.0 4.0 0.00 0.00 0.00 89 1018.8
20230131095105 30 331 3.0 4.0 0.00 0.00 0.00 89 1018.8
20230131094906 30 348 3.0 4.0 0.00 0.00 0.00 89 1018.9
20230131094507 30 313 2.0 5.0 0.00 0.00 0.00 89 1019.0
20230131094405 30 299 3.0 5.0 0.00 0.00 0.00 89 1019.0
20230131094306 30 305 3.0 5.0 0.00 0.00 0.00 89 1018.9
20230131094107 30 308 2.0 5.0 0.00 0.00 0.00 89 1018.9
20230131094005 30 12 2.0 5.0 0.00 0.00 0.00 89 1018.9
20230131093905 30 295 2.0 5.0 0.00 0.00 0.00 89 1019.0
20230131093805 30 331 3.0 5.0 0.00 0.00 0.00 89 1019.0
20230131093706 30 331 4.0 5.0 0.00 0.00 0.00 89 1019.0
20230131093605 30 350 2.0 5.0 0.00 0.00 0.00 89 1019.0
20230131093505 30 326 2.0 5.0 0.00 0.00 0.00 89 1019.0
20230131093405 30 295 3.0 5.0 0.00 0.00 0.00 89 1018.9
20230131093306 30 246 1.0 5.0 0.00 0.00 0.00 89 1018.8
20230131093205 30 306 3.0 5.0 0.00 0.00 0.00 89 1018.7
20230131093105 30 312 2.0 5.0 0.00 0.00 0.00 89 1018.8
20230131093005 30 352 4.0 5.0 0.00 0.00 0.00 89 1018.8
20230131092906 30 321 5.0 5.0 0.00 0.00 0.00 89 1018.7
20230131092805 30 345 3.0 5.0 0.00 0.00 0.00 89 1018.5
20230131092705 30 355 4.0 5.0 0.00 0.00 0.00 89 1018.3
20230131092605 30 350 4.0 5.0 0.00 0.00 0.00 89 1018.4
20230131092507 30 357 3.0 5.0 0.00 0.00 0.00 89 1018.5
20230131092405 31 12 4.0 5.0 0.00 0.00 0.00 89 1018.5
20230131092306 31 313 2.0 5.0 0.00 0.00 0.00 89 1018.5
20230131092205 31 319 3.0 5.0 0.00 0.00 0.00 89 1018.6
20230131092106 31 313 1.0 5.0 0.00 0.00 0.00 89 1018.5
20230131092005 31 338 4.0 5.0 0.00 0.00 0.00 89 1018.6
20230131091805 31 291 1.0 5.0 0.00 0.00 0.00 89 1018.8
20230131091706 31 284 3.0 4.0 0.00 0.00 0.00 89 1018.8
20230131091505 31 308 2.0 4.0 0.00 0.00 0.00 89 1018.8
20230131091405 31 352 2.0 4.0 0.00 0.00 0.00 89 1018.8
20230131091306 31 312 3.0 5.0 0.00 0.00 0.00 89 1018.9
20230131091205 31 352 1.0 5.0 0.00 0.00 0.00 89 1018.8
20230131091105 31 350 4.0 5.0 0.00 0.00 0.00 89 1018.8
20230131091005 31 308 2.0 5.0 0.00 0.00 0.00 89 1018.7
20230131090806 31 5 2.0 5.0 0.00 0.00 0.00 89 1018.6
20230131090705 31 343 4.0 5.0 0.00 0.00 0.00 89 1018.7
20230131090406 31 313 3.0 5.0 0.00 0.00 0.00 89 1018.6
20230131090305 31 2 3.0 4.0 0.00 0.00 0.00 89 1018.6
20230131090205 31 321 2.0 4.0 0.00 0.00 0.00 89 1018.6
20230131090105 31 317 1.0 5.0 0.00 0.00 0.00 89 1018.6
20230131090009 31 308 0.0 5.0 0.00 0.00 0.00 89 1018.6
20230131085905 31 352 1.0 5.0 0.00 0.00 0.00 89 1018.6
20230131085805 31 308 2.0 5.0 0.00 0.00 0.00 89 1018.6
20230131085707 31 5 3.0 5.0 0.00 0.00 0.00 89 1018.6
20230131085406 31 357 1.0 5.0 0.00 0.00 0.00 89 1018.7
20230131085206 31 304 2.0 5.0 0.00 0.00 0.00 89 1018.8
20230131085105 31 16 3.0 5.0 0.00 0.00 0.00 89 1018.7
20230131085005 31 355 2.0 5.0 0.00 0.00 0.00 89 1018.6
20230131084905 31 358 3.0 5.0 0.00 0.00 0.00 89 1018.7
20230131084806 31 357 2.0 5.0 0.00 0.00 0.00 90 1018.7
20230131084705 31 14 2.0 6.0 0.00 0.00 0.00 90 1018.8
20230131084605 31 348 4.0 6.0 0.00 0.00 0.00 90 1018.8
20230131084505 31 26 3.0 6.0 0.00 0.00 0.00 90 1018.8
20230131084407 31 5 3.0 6.0 0.00 0.00 0.00 90 1018.8
20230131084305 31 357 4.0 6.0 0.00 0.00 0.00 90 1018.9
20230131084205 31 343 3.0 6.0 0.00 0.00 0.00 90 1018.8
20230131084105 31 360 3.0 6.0 0.00 0.00 0.00 90 1018.8
20230131084007 31 2 3.0 6.0 0.00 0.00 0.00 90 1018.8
20230131083905 31 2 3.0 6.0 0.00 0.00 0.00 90 1018.8
20230131083805 31 358 3.0 6.0 0.00 0.00 0.00 90 1018.7
20230131083705 31 24 6.0 6.0 0.00 0.00 0.00 90 1018.8
20230131083607 31 16 5.0 6.0 0.00 0.00 0.00 90 1018.8
20230131083505 31 5 3.0 5.0 0.00 0.00 0.00 90 1018.8
20230131083405 31 324 3.0 5.0 0.00 0.00 0.00 90 1018.8
20230131083305 31 16 2.0 5.0 0.00 0.00 0.00 90 1018.8
20230131083206 31 321 3.0 5.0 0.00 0.00 0.00 90 1018.8
20230131083105 31 326 2.0 5.0 0.00 0.00 0.00 90 1018.9
20230131082905 31 348 1.0 5.0 0.00 0.00 0.00 90 1018.8
20230131082705 31 324 2.0 5.0 0.00 0.00 0.00 90 1018.9
20230131082605 31 329 3.0 5.0 0.00 0.00 0.00 90 1018.8
20230131082505 31 338 3.0 5.0 0.00 0.00 0.00 90 1018.8
20230131082407 31 338 3.0 5.0 0.00 0.00 0.00 90 1018.8
20230131082306 31 327 3.0 5.0 0.00 0.00 0.00 90 1018.8
20230131082205 31 4 5.0 5.0 0.00 0.00 0.00 90 1018.8
20230131082105 31 2 3.0 5.0 0.00 0.00 0.00 90 1018.7
20230131082009 31 10 3.0 5.0 0.00 0.00 0.00 90 1018.7
20230131081905 31 348 3.0 5.0 0.00 0.00 0.00 90 1018.8
20230131081705 31 329 3.0 4.0 0.00 0.00 0.00 90 1018.8
20230131081607 31 345 3.0 4.0 0.00 0.00 0.00 90 1018.8
20230131081405 31 338 2.0 4.0 0.00 0.00 0.00 90 1018.7
20230131081305 31 350 2.0 4.0 0.00 0.00 0.00 90 1018.7
20230131081207 31 345 2.0 4.0 0.00 0.00 0.00 90 1018.7
20230131080905 31 2 3.0 3.0 0.00 0.00 0.00 90 1018.7
20230131080807 31 357 2.0 3.0 0.00 0.00 0.00 90 1018.7
20230131080704 31 5 0.0 4.0 0.00 0.00 0.00 90 1018.7
20230131080605 31 350 3.0 5.0 0.00 0.00 0.00 90 1018.7
20230131080407 31 350 2.0 5.0 0.00 0.00 0.00 90 1018.8
20230131080306 31 348 2.0 5.0 0.00 0.00 0.00 90 1018.8
20230131080205 31 357 2.0 5.0 0.00 0.00 0.00 90 1018.8
20230131080105 31 36 1.0 5.0 0.00 0.00 0.00 90 1018.8
20230131080007 31 5 2.0 5.0 0.00 0.00 0.00 90 1018.8
20230131075904 31 350 1.0 5.0 0.00 0.00 0.00 90 1018.7
20230131075803 31 9 4.0 5.0 0.00 0.00 0.00 90 1018.8
20230131075705 31 2 2.0 5.0 0.00 0.00 0.00 90 1018.8
20230131075604 31 16 3.0 5.0 0.00 0.00 0.00 90 1018.7
20230131075404 31 358 3.0 5.0 0.00 0.00 0.00 90 1018.5
20230131075306 31 26 4.0 5.0 0.00 0.00 0.00 90 1018.5
20230131075204 31 2 4.0 5.0 0.00 0.00 0.00 90 1018.6
20230131075104 31 345 3.0 5.0 0.00 0.00 0.00 90 1018.7
20230131074905 31 21 4.0 6.0 0.00 0.00 0.00 90 1018.6
20230131074804 31 357 3.0 6.0 0.00 0.00 0.00 90 1018.7
20230131074604 31 9 4.0 6.0 0.00 0.00 0.00 90 1018.7
20230131074505 31 338 3.0 6.0 0.00 0.00 0.00 90 1018.7
20230131074304 31 350 3.0 6.0 0.00 0.00 0.00 90 1018.7
20230131074105 31 5 4.0 6.0 0.00 0.00 0.00 90 1018.7
20230131074004 31 355 4.0 6.0 0.00 0.00 0.00 90 1018.6
20230131073903 31 17 4.0 7.0 0.00 0.00 0.00 90 1018.6
20230131073803 31 2 4.0 7.0 0.00 0.00 0.00 90 1018.5
20230131073706 31 18 5.0 7.0 0.00 0.00 0.00 90 1018.6
20230131073604 31 9 4.0 7.0 0.00 0.00 0.00 90 1018.5
20230131073504 31 355 3.0 7.0 0.00 0.00 0.00 90 1018.6
20230131073404 31 28 5.0 7.0 0.00 0.00 0.00 90 1018.5
20230131073306 31 7 4.0 7.0 0.00 0.00 0.00 90 1018.5
20230131073204 31 358 4.0 7.0 0.00 0.00 0.00 90 1018.5
20230131073104 31 7 5.0 6.0 0.00 0.00 0.00 90 1018.5
20230131073004 31 26 5.0 6.0 0.00 0.00 0.00 90 1018.6
20230131072905 31 338 2.0 6.0 0.00 0.00 0.00 90 1018.5
20230131072704 31 350 4.0 6.0 0.00 0.00 0.00 90 1018.5
20230131072604 31 7 4.0 6.0 0.00 0.00 0.00 90 1018.5
20230131072505 31 33 5.0 6.0 0.00 0.00 0.00 90 1018.4
20230131072404 31 36 3.0 6.0 0.00 0.00 0.00 90 1018.4
20230131072306 31 33 4.0 6.0 0.00 0.00 0.00 90 1018.4
20230131072204 31 30 5.0 6.0 0.00 0.00 0.00 90 1018.5
20230131072105 31 18 5.0 6.0 0.00 0.00 0.00 90 1018.6
20230131072004 31 7 4.0 6.0 0.00 0.00 0.00 90 1018.7
20230131071904 31 348 4.0 6.0 0.00 0.00 0.00 90 1018.7
20230131071804 31 9 5.0 6.0 0.00 0.00 0.00 90 1018.7
20230131071705 31 358 2.0 6.0 0.00 0.00 0.00 90 1018.7
20230131071504 31 346 4.0 6.0 0.00 0.00 0.00 90 1018.7
20230131071404 31 10 3.0 6.0 0.00 0.00 0.00 90 1018.6
20230131071204 31 9 5.0 6.0 0.00 0.00 0.00 90 1018.5
20230131071104 31 16 6.0 6.0 0.00 0.00 0.00 90 1018.4
20230131071004 31 5 4.0 6.0 0.00 0.00 0.00 90 1018.4
20230131070905 31 10 3.0 6.0 0.00 0.00 0.00 90 1018.4
20230131070804 31 318 5.0 7.0 0.00 0.00 0.00 90 1018.3
20230131070704 31 315 4.0 8.0 0.00 0.00 0.00 90 1018.3
20230131070604 31 331 3.0 8.0 0.00 0.00 0.00 90 1018.3
20230131070505 31 325 4.0 8.0 0.00 0.00 0.00 90 1018.3
20230131070404 31 351 3.0 8.0 0.00 0.00 0.00 90 1018.3
20230131070006 31 2 4.0 8.0 0.00 0.00 0.00 90 1018.2
20230131065904 31 9 7.0 8.0 0.00 0.00 0.00 90 1018.1
20230131065807 31 338 1.0 7.0 0.00 0.00 0.00 90 1018.1
20230131065704 31 341 5.0 7.0 0.00 0.00 0.00 90 1018.1
20230131065604 31 12 3.0 7.0 0.00 0.00 0.00 90 1018.2
20230131065506 31 37 4.0 7.0 0.00 0.00 0.00 90 1018.3
20230131065404 31 338 3.0 7.0 0.00 0.00 0.00 90 1018.3
20230131065305 31 338 3.0 7.0 0.00 0.00 0.00 90 1018.3
20230131065204 31 343 4.0 7.0 0.00 0.00 0.00 90 1018.3
20230131065105 31 312 3.0 7.0 0.00 0.00 0.00 90 1018.3
20230131065004 31 338 0.0 7.0 0.00 0.00 0.00 90 1018.3
20230131064904 31 313 3.0 7.0 0.00 0.00 0.00 90 1018.3
20230131064804 31 286 4.0 7.0 0.00 0.00 0.00 90 1018.2
20230131064706 31 338 3.0 7.0 0.00 0.00 0.00 90 1018.2
20230131064605 31 2 5.0 7.0 0.00 0.00 0.00 90 1018.2
20230131064504 31 346 4.0 5.0 0.00 0.00 0.00 90 1018.3
20230131064403 31 345 3.0 5.0 0.00 0.00 0.00 90 1018.3
20230131064305 31 12 2.0 5.0 0.00 0.00 0.00 90 1018.3
20230131064204 31 350 4.0 5.0 0.00 0.00 0.00 90 1018.3
20230131064104 31 5 2.0 4.0 0.00 0.00 0.00 90 1018.2
20230131064004 31 360 2.0 5.0 0.00 0.00 0.00 90 1018.3
20230131063905 31 358 2.0 6.0 0.00 0.00 0.00 90 1018.3
20230131063804 31 328 3.0 6.0 0.00 0.00 0.00 90 1018.3
20230131063704 31 338 2.0 6.0 0.00 0.00 0.00 90 1018.3
20230131063606 31 7 3.0 6.0 0.00 0.00 0.00 90 1018.3
20230131063506 31 338 2.0 6.0 0.00 0.00 0.00 90 1018.2
20230131063404 31 348 1.0 6.0 0.00 0.00 0.00 90 1018.2
20230131063304 31 323 3.0 6.0 0.00 0.00 0.00 90 1018.2
20230131063203 31 313 3.0 6.0 0.00 0.00 0.00 90 1018.2
20230131063105 31 326 4.0 6.0 0.00 0.00 0.00 90 1018.3
20230131062904 31 5 2.0 7.0 0.00 0.00 0.00 90 1018.2
20230131062804 31 338 3.0 7.0 0.00 0.00 0.00 90 1018.1
20230131062705 31 331 5.0 7.0 0.00 0.00 0.00 90 1018.1
20230131062504 31 350 3.0 7.0 0.00 0.00 0.00 90 1018.0
20230131062404 32 2 5.0 7.0 0.00 0.00 0.00 90 1018.0
20230131062306 32 338 3.0 6.0 0.00 0.00 0.00 90 1018.0
20230131062204 32 338 3.0 6.0 0.00 0.00 0.00 90 1018.0
20230131062104 32 338 3.0 6.0 0.00 0.00 0.00 90 1018.0
20230131062004 32 308 4.0 5.0 0.00 0.00 0.00 90 1018.1
20230131061905 32 317 1.0 6.0 0.00 0.00 0.00 90 1018.1
20230131061804 32 338 3.0 6.0 0.00 0.00 0.00 90 1018.2
20230131061704 32 286 2.0 6.0 0.00 0.00 0.00 90 1018.2
20230131061604 32 338 4.0 6.0 0.00 0.00 0.00 90 1018.2
20230131061507 32 338 1.0 6.0 0.00 0.00 0.00 90 1018.2
20230131061403 32 327 4.0 6.0 0.00 0.00 0.00 90 1018.0
20230131061206 32 357 4.0 6.0 0.00 0.00 0.00 90 1018.0
20230131061104 32 341 6.0 6.0 0.00 0.00 0.00 90 1018.0
20230131061004 32 331 4.0 6.0 0.00 0.00 0.00 90 1018.0
20230131060904 32 338 3.0 6.0 0.00 0.00 0.00 90 1018.0
20230131060805 32 323 2.0 6.0 0.00 0.00 0.00 90 1018.0
20230131060703 32 338 3.0 6.0 0.00 0.00 0.00 90 1018.0
20230131060604 32 357 4.0 6.0 0.00 0.00 0.00 90 1018.0
20230131060504 32 320 3.0 6.0 0.00 0.00 0.00 90 1018.0
20230131060406 32 319 3.0 6.0 0.00 0.00 0.00 90 1018.0
20230131060304 32 345 2.0 6.0 0.00 0.00 0.00 90 1018.0
20230131060204 32 331 4.0 6.0 0.00 0.00 0.00 90 1017.9
20230131060008 32 332 5.0 7.0 0.00 0.00 0.00 90 1017.9
20230131055903 32 331 4.0 7.0 0.00 0.00 0.00 90 1018.0
20230131055704 32 306 4.0 7.0 0.00 0.00 0.00 90 1017.7
20230131055605 32 327 4.0 7.0 0.00 0.00 0.00 90 1017.6
20230131055504 32 353 4.0 7.0 0.00 0.00 0.00 90 1017.6
20230131055306 32 49 6.0 7.0 0.00 0.00 0.00 90 1017.8
20230131055104 32 16 5.0 9.0 0.00 0.00 0.00 90 1017.9
20230131055004 32 291 5.0 9.0 0.00 0.00 0.00 90 1017.9
20230131054904 32 343 3.0 9.0 0.00 0.00 0.00 90 1018.0
20230131054704 32 2 5.0 9.0 0.00 0.00 0.00 90 1018.0
20230131054505 32 23 5.0 9.0 0.00 0.00 0.00 90 1017.9
20230131054406 32 2 4.0 9.0 0.00 0.00 0.00 91 1017.9
20230131054304 32 5 6.0 9.0 0.00 0.00 0.00 91 1018.0
20230131054204 32 350 3.0 8.0 0.00 0.00 0.00 91 1017.9
20230131054104 32 358 3.0 9.0 0.00 0.00 0.00 91 1017.9
20230131053904 32 7 4.0 9.0 0.00 0.00 0.00 90 1018.0
20230131053804 32 33 2.0 9.0 0.00 0.00 0.00 90 1018.0
20230131053704 32 16 3.0 9.0 0.00 0.00 0.00 91 1018.0
20230131053606 32 10 4.0 9.0 0.00 0.00 0.00 91 1017.9
20230131053504 32 10 7.0 9.0 0.00 0.00 0.00 90 1017.9
20230131053404 32 4 6.0 9.0 0.00 0.00 0.00 91 1018.0
20230131053304 32 21 7.0 9.0 0.00 0.00 0.00 91 1017.9
20230131053206 32 23 8.0 9.0 0.00 0.00 0.00 91 1017.9
20230131052904 33 9 7.0 8.0 0.00 0.00 0.00 91 1017.9
20230131052806 33 360 5.0 8.0 0.00 0.00 0.00 91 1017.9
20230131052704 33 357 3.0 7.0 0.00 0.00 0.00 91 1018.0
20230131052604 33 331 4.0 7.0 0.00 0.00 0.00 91 1018.0
20230131052504 33 357 3.0 7.0 0.00 0.00 0.00 91 1017.9
20230131052406 33 327 4.0 7.0 0.00 0.00 0.00 91 1017.9
20230131052306 33 9 4.0 7.0 0.00 0.00 0.00 91 1017.9
20230131052204 33 341 6.0 7.0 0.00 0.00 0.00 91 1017.9
20230131052104 33 14 3.0 7.0 0.00 0.00 0.00 91 1017.9
20230131052006 33 326 4.0 7.0 0.00 0.00 0.00 91 1017.8
20230131051904 33 324 4.0 7.0 0.00 0.00 0.00 91 1017.9
20230131051804 33 5 3.0 7.0 0.00 0.00 0.00 91 1017.8
20230131051704 33 4 5.0 7.0 0.00 0.00 0.00 91 1017.8
20230131051606 33 14 7.0 7.0 0.00 0.00 0.00 91 1017.7
20230131051504 33 5 4.0 7.0 0.00 0.00 0.00 91 1017.8
20230131051404 33 2 5.0 10.0 0.00 0.00 0.00 91 1017.9
20230131051304 33 9 5.0 10.0 0.00 0.00 0.00 91 1018.0
20230131051206 33 343 3.0 10.0 0.00 0.00 0.00 91 1018.0
20230131051104 33 338 4.0 10.0 0.00 0.00 0.00 91 1018.0
20230131051004 33 338 4.0 10.0 0.00 0.00 0.00 91 1017.9
20230131050904 33 321 3.0 10.0 0.00 0.00 0.00 91 1017.9
20230131050806 33 311 5.0 10.0 0.00 0.00 0.00 91 1018.0
20230131050704 33 350 4.0 10.0 0.00 0.00 0.00 91 1018.0
20230131050604 33 320 9.0 9.0 0.00 0.00 0.00 91 1018.0
20230131050505 33 338 3.0 7.0 0.00 0.00 0.00 91 1018.0
20230131050406 33 343 4.0 7.0 0.00 0.00 0.00 91 1018.1
20230131050304 33 324 4.0 7.0 0.00 0.00 0.00 91 1018.1
20230131050208 33 338 3.0 7.0 0.00 0.00 0.00 91 1018.1
20230131050108 33 320 7.0 7.0 0.00 0.00 0.00 91 1018.0
20230131050013 33 357 6.0 6.0 0.00 0.00 0.00 91 1018.0
20230131045808 33 348 6.0 6.0 0.00 0.00 0.00 91 1018.2
20230131045710 33 291 3.0 6.0 0.00 0.00 0.00 91 1018.2
20230131045608 33 301 3.0 6.0 0.00 0.00 0.00 91 1018.1
20230131045508 33 313 4.0 7.0 0.00 0.00 0.00 91 1018.1
20230131045310 33 327 3.0 8.0 0.00 0.00 0.00 91 1017.9
20230131045208 33 5 3.0 8.0 0.00 0.00 0.00 91 1018.0
20230131045108 33 313 2.0 8.0 0.00 0.00 0.00 91 1018.1
20230131045011 33 12 2.0 8.0 0.00 0.00 0.00 91 1018.1
20230131044808 33 307 5.0 8.0 0.00 0.00 0.00 91 1018.3
20230131044710 33 310 4.0 9.0 0.00 0.00 0.00 91 1018.2
20230131044610 33 314 3.0 9.0 0.00 0.00 0.00 91 1018.1
20230131044508 33 14 4.0 9.0 0.00 0.00 0.00 91 1018.1
20230131044408 33 9 4.0 9.0 0.00 0.00 0.00 91 1018.1
20230131044308 33 317 3.0 9.0 0.00 0.00 0.00 91 1018.1
20230131044210 33 21 4.0 9.0 0.00 0.00 0.00 91 1018.1
20230131044108 33 5 5.0 9.0 0.00 0.00 0.00 91 1018.1
20230131043908 33 35 6.0 9.0 0.00 0.00 0.00 91 1018.3
20230131043810 33 47 6.0 8.0 0.00 0.00 0.00 91 1018.3
20230131043708 33 21 4.0 7.0 0.00 0.00 0.00 91 1018.3
20230131043608 33 346 5.0 8.0 0.00 0.00 0.00 91 1018.3
20230131043508 33 355 5.0 8.0 0.00 0.00 0.00 91 1018.2
20230131043209 33 312 3.0 8.0 0.00 0.00 0.00 91 1018.3
20230131043108 33 357 5.0 8.0 0.00 0.00 0.00 91 1018.3
20230131043010 33 358 4.0 8.0 0.00 0.00 0.00 91 1018.2
20230131042908 33 350 4.0 8.0 0.00 0.00 0.00 91 1018.3
20230131042808 33 350 4.0 9.0 0.00 0.00 0.00 91 1018.3
20230131042708 33 322 6.0 9.0 0.00 0.00 0.00 91 1018.3
20230131042610 33 325 5.0 9.0 0.00 0.00 0.00 91 1018.2
20230131042408 33 306 4.0 9.0 0.00 0.00 0.00 91 1018.2
20230131042308 33 351 7.0 9.0 0.00 0.00 0.00 91 1018.2
20230131042209 33 12 4.0 9.0 0.00 0.00 0.00 91 1018.3
20230131042108 33 12 6.0 9.0 0.00 0.00 0.00 91 1018.3
20230131042008 33 5 7.0 9.0 0.00 0.00 0.00 91 1018.3
20230131041908 33 24 6.0 8.0 0.00 0.00 0.00 91 1018.3
20230131041809 33 326 3.0 7.0 0.00 0.00 0.00 91 1018.3
20230131041708 33 306 5.0 7.0 0.00 0.00 0.00 91 1018.3
20230131041608 33 321 4.0 7.0 0.00 0.00 0.00 91 1018.3
20230131041508 33 333 6.0 7.0 0.00 0.00 0.00 91 1018.3
20230131041410 33 324 2.0 6.0 0.00 0.00 0.00 91 1018.3
20230131041208 33 357 4.0 6.0 0.00 0.00 0.00 91 1018.4
20230131041108 33 9 4.0 6.0 0.00 0.00 0.00 91 1018.4
20230131041010 33 357 4.0 6.0 0.00 0.00 0.00 91 1018.5
20230131040908 33 10 4.0 6.0 0.00 0.00 0.00 91 1018.5
20230131040808 34 321 4.0 6.0 0.00 0.00 0.00 91 1018.5
20230131040708 33 324 3.0 7.0 0.00 0.00 0.00 91 1018.5
20230131040610 34 357 5.0 9.0 0.00 0.00 0.00 91 1018.5
20230131040308 34 343 4.0 9.0 0.00 0.00 0.00 91 1018.5
20230131040210 34 338 4.0 9.0 0.00 0.00 0.00 91 1018.5
20230131040010 34 4 4.0 9.0 0.00 0.00 0.00 91 1018.6
20230131035909 34 357 6.0 9.0 0.00 0.00 0.00 91 1018.6
20230131035808 34 5 6.0 10.0 0.00 0.00 0.00 91 1018.6
20230131035708 34 2 8.0 10.0 0.00 0.00 0.00 91 1018.7
20230131035608 34 7 7.0 10.0 0.00 0.00 0.00 91 1018.7
20230131035511 34 357 6.0 10.0 0.00 0.00 0.00 91 1018.7
20230131035209 34 9 7.0 10.0 0.00 0.00 0.00 91 1018.7
20230131035110 34 5 5.0 10.0 0.00 0.00 0.00 91 1018.7
20230131035008 34 21 8.0 10.0 0.00 0.00 0.00 92 1018.6
20230131034908 34 305 6.0 8.0 0.00 0.00 0.00 91 1018.6
20230131034808 34 352 5.0 7.0 0.00 0.00 0.00 91 1018.6
20230131034709 34 346 4.0 7.0 0.00 0.00 0.00 92 1018.6
20230131034608 34 314 5.0 6.0 0.00 0.00 0.00 92 1018.6
20230131034508 34 305 2.0 6.0 0.00 0.00 0.00 91 1018.6
20230131034408 34 9 3.0 6.0 0.00 0.00 0.00 92 1018.6
20230131034309 34 12 3.0 6.0 0.00 0.00 0.00 92 1018.5
20230131034208 34 16 3.0 5.0 0.00 0.00 0.00 91 1018.6
20230131034108 34 345 3.0 5.0 0.00 0.00 0.00 91 1018.7
20230131034009 34 317 3.0 5.0 0.00 0.00 0.00 92 1018.7
20230131033909 34 308 4.0 5.0 0.00 0.00 0.00 91 1018.7
20230131033808 34 2 4.0 7.0 0.00 0.00 0.00 91 1018.7
20230131033708 34 350 4.0 7.0 0.00 0.00 0.00 91 1018.7